Wetterdaten: Freitag, 30.06.2023
Datum Zeit Temp. Aussen Temp. o. S. Temp +5cm Feuchte Auss Luftdruck Regen Sonnenschein Regendauer Solar Windben Empfang
30.06.2023 00:00 18,1 C 17,2 C 13,3 C 93 % 1014,1 hPa 0,0 l/m 0 min 0 min 0 W/m 12,9 km/h (3 Bft) 97,14 %
30.06.2023 00:02 18,1 C 17,2 C 13,3 C 94 % 1014,2 hPa 0,0 l/m 0 min 0 min 0 W/m 12,9 km/h (3 Bft) 94,87 %
30.06.2023 00:04 18,0 C 16,7 C 13,3 C 94 % 1014,1 hPa 0,0 l/m 0 min 0 min 0 W/m 19,3 km/h (3 Bft) 95,92 %
30.06.2023 00:08 17,9 C 16,7 C 13,3 C 94 % 1014,2 hPa 0,0 l/m 0 min 0 min 0 W/m 16,1 km/h (3 Bft) 95,92 %
30.06.2023 00:10 17,9 C 17,2 C 13,9 C 94 % 1014,2 hPa 0,0 l/m 0 min 0 min 0 W/m 16,1 km/h (3 Bft) 96,40 %
30.06.2023 00:12 17,8 C 17,2 C 13,9 C 94 % 1014,1 hPa 0,0 l/m 0 min 0 min 0 W/m 16,1 km/h (3 Bft) 95,74 %
30.06.2023 00:14 17,8 C 17,2 C 13,9 C 94 % 1014,2 hPa 0,0 l/m 0 min 0 min 0 W/m 12,9 km/h (3 Bft) 91,49 %
30.06.2023 00:16 17,8 C 16,7 C 13,9 C 94 % 1014,2 hPa 0,0 l/m 0 min 0 min 0 W/m 16,1 km/h (3 Bft) 97,87 %
30.06.2023 00:18 17,8 C 16,7 C 13,3 C 94 % 1014,2 hPa 0,0 l/m 0 min 0 min 0 W/m 16,1 km/h (3 Bft) 97,92 %
30.06.2023 00:20 17,7 C 16,7 C 13,3 C 94 % 1014,2 hPa 0,0 l/m 0 min 0 min 0 W/m 16,1 km/h (3 Bft) 97,83 %
30.06.2023 00:22 17,7 C 16,7 C 13,3 C 94 % 1014,2 hPa 0,0 l/m 0 min 0 min 0 W/m 16,1 km/h (3 Bft) 97,87 %
30.06.2023 00:24 17,6 C 16,7 C 13,3 C 94 % 1014,2 hPa 0,0 l/m 0 min 0 min 0 W/m 12,9 km/h (3 Bft) 97,87 %
30.06.2023 00:26 17,6 C 16,7 C 13,3 C 94 % 1014,2 hPa 0,0 l/m 0 min 0 min 0 W/m 16,1 km/h (3 Bft) 97,87 %
30.06.2023 00:28 17,6 C 16,7 C 13,3 C 94 % 1014,1 hPa 0,0 l/m 0 min 0 min 0 W/m 22,5 km/h (4 Bft) 97,87 %
30.06.2023 00:30 17,5 C 16,7 C 13,3 C 94 % 1014,2 hPa 0,0 l/m 0 min 0 min 0 W/m 22,5 km/h (4 Bft) 97,87 %
30.06.2023 00:32 17,5 C 16,7 C 13,3 C 94 % 1014,2 hPa 0,0 l/m 0 min 0 min 0 W/m 16,1 km/h (3 Bft) 97,83 %
30.06.2023 00:34 17,4 C 16,7 C 13,3 C 94 % 1014,2 hPa 0,0 l/m 0 min 0 min 0 W/m 19,3 km/h (3 Bft) 97,87 %
30.06.2023 00:36 17,4 C 16,7 C 13,3 C 94 % 1014,2 hPa 0,0 l/m 0 min 0 min 0 W/m 16,1 km/h (3 Bft) 97,87 %
30.06.2023 00:38 17,4 C 16,7 C 13,3 C 94 % 1014,2 hPa 0,0 l/m 0 min 0 min 0 W/m 12,9 km/h (3 Bft) 95,74 %
30.06.2023 00:40 17,3 C 16,7 C 13,3 C 94 % 1014,2 hPa 0,0 l/m 0 min 0 min 0 W/m 19,3 km/h (3 Bft) 100,00 %
30.06.2023 00:42 17,3 C 16,7 C 13,3 C 94 % 1014,2 hPa 0,0 l/m 0 min 0 min 0 W/m 12,9 km/h (3 Bft) 97,87 %
30.06.2023 00:44 17,3 C 16,7 C 13,3 C 94 % 1014,2 hPa 0,0 l/m 0 min 0 min 0 W/m 16,1 km/h (3 Bft) 100,00 %
30.06.2023 00:46 17,2 C 16,1 C 13,3 C 94 % 1014,3 hPa 0,0 l/m 0 min 0 min 0 W/m 12,9 km/h (3 Bft) 100,00 %
30.06.2023 00:48 17,2 C 16,1 C 13,3 C 94 % 1014,3 hPa 0,0 l/m 0 min 0 min 0 W/m 19,3 km/h (3 Bft) 100,00 %
30.06.2023 00:50 17,2 C 16,7 C 13,3 C 94 % 1014,2 hPa 0,0 l/m 0 min 0 min 0 W/m 3,2 km/h (1 Bft) 100,00 %
30.06.2023 00:52 17,2 C 16,7 C 13,3 C 94 % 1014,2 hPa 0,0 l/m 0 min 0 min 0 W/m 16,1 km/h (3 Bft) 100,00 %
30.06.2023 00:54 17,2 C 16,7 C 13,3 C 94 % 1014,3 hPa 0,0 l/m 0 min 0 min 0 W/m 6,4 km/h (2 Bft) 100,00 %
30.06.2023 00:56 17,2 C 16,7 C 13,3 C 94 % 1014,2 hPa 0,0 l/m 0 min 0 min 0 W/m 9,7 km/h (2 Bft) 100,00 %
30.06.2023 00:58 17,1 C 16,7 C 13,3 C 94 % 1014,3 hPa 0,0 l/m 0 min 0 min 0 W/m 12,9 km/h (3 Bft) 97,83 %
30.06.2023 01:00 17,1 C 16,1 C 13,3 C 94 % 1014,3 hPa 0,0 l/m 0 min 0 min 0 W/m 16,1 km/h (3 Bft) 100,00 %
30.06.2023 01:02 17,1 C 16,7 C 13,3 C 94 % 1014,2 hPa 0,0 l/m 0 min 0 min 0 W/m 16,1 km/h (3 Bft) 97,87 %
30.06.2023 01:04 17,1 C 16,7 C 12,8 C 94 % 1014,2 hPa 0,0 l/m 0 min 0 min 0 W/m 9,7 km/h (2 Bft) 97,96 %
30.06.2023 01:06 17,1 C 16,1 C 12,8 C 94 % 1014,2 hPa 0,0 l/m 0 min 0 min 0 W/m 22,5 km/h (4 Bft) 100,00 %
30.06.2023 01:08 17,1 C 16,1 C 12,8 C 94 % 1014,3 hPa 0,0 l/m 0 min 0 min 0 W/m 19,3 km/h (3 Bft) 100,00 %
30.06.2023 01:10 17,1 C 16,1 C 12,8 C 94 % 1014,2 hPa 0,0 l/m 0 min 0 min 0 W/m 12,9 km/h (3 Bft) 100,00 %
30.06.2023 01:12 17,1 C 16,1 C 12,8 C 94 % 1014,3 hPa 0,0 l/m 0 min 0 min 0 W/m 16,1 km/h (3 Bft) 100,00 %
30.06.2023 01:14 16,9 C 16,1 C 12,8 C 94 % 1014,3 hPa 0,0 l/m 0 min 0 min 0 W/m 22,5 km/h (4 Bft) 98,28 %
30.06.2023 01:16 16,9 C 16,1 C 12,8 C 94 % 1014,3 hPa 0,0 l/m 0 min 0 min 0 W/m 9,7 km/h (2 Bft) 100,00 %
30.06.2023 01:18 16,8 C 16,1 C 12,8 C 94 % 1014,4 hPa 0,0 l/m 0 min 0 min 0 W/m 12,9 km/h (3 Bft) 100,00 %
30.06.2023 01:20 16,8 C 16,1 C 12,8 C 94 % 1014,5 hPa 0,0 l/m 0 min 0 min 0 W/m 12,9 km/h (3 Bft) 100,00 %
30.06.2023 01:22 16,7 C 16,1 C 12,8 C 94 % 1014,5 hPa 0,0 l/m 0 min 0 min 0 W/m 9,7 km/h (2 Bft) 100,00 %
30.06.2023 01:24 16,7 C 16,1 C 12,8 C 94 % 1014,5 hPa 0,0 l/m 0 min 0 min 0 W/m 12,9 km/h (3 Bft) 100,00 %
30.06.2023 01:26 16,6 C 16,1 C 12,8 C 94 % 1014,6 hPa 0,0 l/m 0 min 0 min 0 W/m 19,3 km/h (3 Bft) 97,87 %
30.06.2023 01:28 16,6 C 16,1 C 12,2 C 94 % 1014,6 hPa 0,0 l/m 0 min 0 min 0 W/m 16,1 km/h (3 Bft) 97,83 %
30.06.2023 01:31 16,5 C 15,6 C 11,7 C 94 % 1014,5 hPa 0,2 l/m 0 min 3 min 0 W/m 12,9 km/h (3 Bft) 97,18 %
30.06.2023 01:32 16,5 C 15,6 C 11,7 C 94 % 1014,5 hPa 0,0 l/m 0 min 1 min 0 W/m 6,4 km/h (2 Bft) 95,65 %
30.06.2023 01:34 16,5 C 15,6 C 11,7 C 94 % 1014,6 hPa 0,0 l/m 0 min 2 min 0 W/m 9,7 km/h (2 Bft) 97,87 %
30.06.2023 01:36 16,4 C 15,6 C 11,7 C 94 % 1014,5 hPa 0,2 l/m 0 min 2 min 0 W/m 16,1 km/h (3 Bft) 95,74 %
30.06.2023 01:38 16,4 C 15,6 C 11,7 C 94 % 1014,5 hPa 0,0 l/m 0 min 2 min 0 W/m 9,7 km/h (2 Bft) 97,87 %
30.06.2023 01:40 16,4 C 15,6 C 11,7 C 94 % 1014,5 hPa 0,2 l/m 0 min 2 min 0 W/m 12,9 km/h (3 Bft) 97,87 %
30.06.2023 01:42 16,3 C 15,6 C 11,1 C 94 % 1014,5 hPa 0,0 l/m 0 min 2 min 0 W/m 12,9 km/h (3 Bft) 97,83 %
30.06.2023 01:44 16,3 C 15,6 C 11,7 C 94 % 1014,5 hPa 0,0 l/m 0 min 2 min 0 W/m 12,9 km/h (3 Bft) 95,74 %
30.06.2023 01:46 16,3 C 15,6 C 11,7 C 94 % 1014,5 hPa 0,0 l/m 0 min 2 min 0 W/m 6,4 km/h (2 Bft) 97,87 %
30.06.2023 01:48 16,3 C 15,6 C 11,7 C 95 % 1014,6 hPa 0,2 l/m 0 min 2 min 0 W/m 16,1 km/h (3 Bft) 95,74 %
30.06.2023 01:50 16,2 C 15,6 C 11,1 C 95 % 1014,5 hPa 0,0 l/m 0 min 2 min 0 W/m 9,7 km/h (2 Bft) 97,87 %
30.06.2023 01:52 16,2 C 15,0 C 11,1 C 95 % 1014,5 hPa 0,2 l/m 0 min 2 min 0 W/m 6,4 km/h (2 Bft) 97,87 %
30.06.2023 01:54 16,2 C 15,0 C 11,1 C 95 % 1014,6 hPa 0,0 l/m 0 min 2 min 0 W/m 16,1 km/h (3 Bft) 97,87 %
30.06.2023 01:56 16,1 C 15,0 C 11,1 C 95 % 1014,5 hPa 0,0 l/m 0 min 2 min 0 W/m 12,9 km/h (3 Bft) 93,62 %
30.06.2023 01:58 16,1 C 15,0 C 11,1 C 95 % 1014,5 hPa 0,0 l/m 0 min 2 min 0 W/m 12,9 km/h (3 Bft) 94,74 %
30.06.2023 02:00 16,1 C 15,0 C 11,1 C 95 % 1014,5 hPa 0,0 l/m 0 min 0 min 0 W/m 9,7 km/h (2 Bft) 93,62 %
30.06.2023 02:02 16,1 C 15,0 C 11,1 C 95 % 1014,4 hPa 0,0 l/m 0 min 0 min 0 W/m 6,4 km/h (2 Bft) 93,62 %
30.06.2023 02:04 16,0 C 15,0 C 11,1 C 95 % 1014,4 hPa 0,0 l/m 0 min 0 min 0 W/m 9,7 km/h (2 Bft) 91,84 %
30.06.2023 02:06 16,1 C 15,0 C 11,1 C 95 % 1014,4 hPa 0,0 l/m 0 min 0 min 0 W/m 6,4 km/h (2 Bft) 94,83 %
30.06.2023 02:08 16,0 C 15,0 C 11,1 C 95 % 1014,4 hPa 0,0 l/m 0 min 0 min 0 W/m 6,4 km/h (2 Bft) 97,22 %
30.06.2023 02:10 16,0 C 15,0 C 11,7 C 95 % 1014,5 hPa 0,0 l/m 0 min 0 min 0 W/m 9,7 km/h (2 Bft) 91,30 %
30.06.2023 02:12 16,0 C 15,0 C 11,1 C 95 % 1014,5 hPa 0,0 l/m 0 min 0 min 0 W/m 6,4 km/h (2 Bft) 93,62 %
30.06.2023 02:14 15,9 C 15,0 C 11,1 C 95 % 1014,5 hPa 0,0 l/m 0 min 0 min 0 W/m 12,9 km/h (3 Bft) 92,45 %
30.06.2023 02:16 15,9 C 15,0 C 11,1 C 95 % 1014,5 hPa 0,0 l/m 0 min 0 min 0 W/m 9,7 km/h (2 Bft) 93,62 %
30.06.2023 02:18 15,9 C 15,0 C 11,1 C 96 % 1014,4 hPa 0,0 l/m 0 min 0 min 0 W/m 12,9 km/h (3 Bft) 92,00 %
30.06.2023 02:20 15,9 C 15,0 C 11,1 C 96 % 1014,4 hPa 0,0 l/m 0 min 0 min 0 W/m 9,7 km/h (2 Bft) 95,74 %
30.06.2023 02:22 15,8 C 15,0 C 11,1 C 96 % 1014,4 hPa 0,0 l/m 0 min 0 min 0 W/m 9,7 km/h (2 Bft) 91,89 %
30.06.2023 02:24 15,8 C 15,0 C 11,1 C 96 % 1014,4 hPa 0,0 l/m 0 min 0 min 0 W/m 9,7 km/h (2 Bft) 93,62 %
30.06.2023 02:26 15,8 C 15,0 C 11,1 C 96 % 1014,3 hPa 0,0 l/m 0 min 0 min 0 W/m 9,7 km/h (2 Bft) 95,74 %
30.06.2023 02:28 15,8 C 15,0 C 11,1 C 96 % 1014,4 hPa 0,0 l/m 0 min 2 min 0 W/m 6,4 km/h (2 Bft) 97,87 %
30.06.2023 02:30 15,7 C 15,0 C 11,1 C 96 % 1014,3 hPa 0,0 l/m 0 min 2 min 0 W/m 12,9 km/h (3 Bft) 95,74 %
30.06.2023 02:32 15,7 C 15,0 C 11,1 C 96 % 1014,3 hPa 0,0 l/m 0 min 0 min 0 W/m 6,4 km/h (2 Bft) 96,23 %
30.06.2023 02:34 15,7 C 15,0 C 11,1 C 96 % 1014,3 hPa 0,0 l/m 0 min 0 min 0 W/m 9,7 km/h (2 Bft) 96,08 %
30.06.2023 02:36 15,7 C 15,0 C 11,1 C 96 % 1014,3 hPa 0,0 l/m 0 min 0 min 0 W/m 6,4 km/h (2 Bft) 97,83 %
30.06.2023 02:38 15,7 C 15,0 C 11,1 C 96 % 1014,3 hPa 0,0 l/m 0 min 2 min 0 W/m 6,4 km/h (2 Bft) 95,74 %
30.06.2023 02:40 15,7 C 15,0 C 11,1 C 96 % 1014,3 hPa 0,0 l/m 0 min 2 min 0 W/m 6,4 km/h (2 Bft) 97,87 %
30.06.2023 02:42 15,7 C 15,0 C 11,1 C 96 % 1014,4 hPa 0,0 l/m 0 min 2 min 0 W/m 6,4 km/h (2 Bft) 95,74 %
30.06.2023 02:44 15,7 C 15,0 C 11,7 C 96 % 1014,4 hPa 0,2 l/m 0 min 2 min 0 W/m 0,0 km/h (0 Bft) 97,87 %
30.06.2023 02:46 15,7 C 15,0 C 11,1 C 96 % 1014,3 hPa 0,2 l/m 0 min 2 min 0 W/m 3,2 km/h (1 Bft) 95,74 %
30.06.2023 02:48 15,8 C 15,0 C 11,1 C 96 % 1014,4 hPa 0,0 l/m 0 min 2 min 0 W/m 3,2 km/h (1 Bft) 97,87 %
30.06.2023 02:50 15,8 C 15,0 C 11,1 C 96 % 1014,4 hPa 0,2 l/m 0 min 2 min 0 W/m 6,4 km/h (2 Bft) 97,83 %
30.06.2023 02:52 15,8 C 15,0 C 11,1 C 96 % 1014,4 hPa 0,0 l/m 0 min 2 min 0 W/m 3,2 km/h (1 Bft) 97,87 %
30.06.2023 02:54 15,7 C 15,0 C 11,1 C 96 % 1014,4 hPa 0,0 l/m 0 min 2 min 0 W/m 3,2 km/h (1 Bft) 100,00 %
30.06.2023 02:56 15,7 C 15,0 C 11,1 C 96 % 1014,3 hPa 0,0 l/m 0 min 0 min 0 W/m 0,0 km/h (0 Bft) 97,37 %
30.06.2023 02:58 15,7 C 15,0 C 11,1 C 96 % 1014,3 hPa 0,0 l/m 0 min 2 min 0 W/m 0,0 km/h (0 Bft) 97,87 %
30.06.2023 03:00 15,8 C 15,0 C 11,1 C 96 % 1014,3 hPa 0,0 l/m 0 min 2 min 0 W/m 0,0 km/h (0 Bft) 100,00 %
30.06.2023 03:02 15,8 C 15,0 C 11,7 C 96 % 1014,3 hPa 0,0 l/m 0 min 2 min 0 W/m 3,2 km/h (1 Bft) 100,00 %
30.06.2023 03:04 15,8 C 15,0 C 11,1 C 96 % 1014,3 hPa 0,0 l/m 0 min 2 min 0 W/m 6,4 km/h (2 Bft) 100,00 %
30.06.2023 03:06 15,8 C 15,0 C 11,1 C 96 % 1014,3 hPa 0,0 l/m 0 min 2 min 0 W/m 0,0 km/h (0 Bft) 100,00 %
30.06.2023 03:08 15,8 C 15,0 C 11,1 C 96 % 1014,4 hPa 0,0 l/m 0 min 2 min 0 W/m 3,2 km/h (1 Bft) 100,00 %
30.06.2023 03:10 15,8 C 15,0 C 11,1 C 96 % 1014,3 hPa 0,0 l/m 0 min 2 min 0 W/m 9,7 km/h (2 Bft) 100,00 %
30.06.2023 03:12 15,8 C 15,0 C 11,1 C 96 % 1014,3 hPa 0,0 l/m 0 min 0 min 0 W/m 9,7 km/h (2 Bft) 100,00 %
30.06.2023 03:14 15,8 C 15,0 C 11,1 C 96 % 1014,3 hPa 0,0 l/m 0 min 0 min 0 W/m 3,2 km/h (1 Bft) 100,00 %
30.06.2023 03:16 15,8 C 15,0 C 11,7 C 97 % 1014,2 hPa 0,0 l/m 0 min 0 min 0 W/m 0,0 km/h (0 Bft) 100,00 %
30.06.2023 03:18 15,8 C 15,0 C 11,7 C 97 % 1014,2 hPa 0,0 l/m 0 min 0 min 0 W/m 6,4 km/h (2 Bft) 100,00 %
30.06.2023 03:20 15,8 C 15,0 C 11,7 C 97 % 1014,3 hPa 0,0 l/m 0 min 0 min 0 W/m 3,2 km/h (1 Bft) 100,00 %
30.06.2023 03:22 15,8 C 15,0 C 11,1 C 97 % 1014,3 hPa 0,0 l/m 0 min 0 min 0 W/m 6,4 km/h (2 Bft) 97,96 %
30.06.2023 03:24 15,8 C 15,0 C 11,1 C 97 % 1014,3 hPa 0,0 l/m 0 min 2 min 0 W/m 6,4 km/h (2 Bft) 97,14 %
30.06.2023 03:26 15,8 C 15,0 C 11,1 C 97 % 1014,3 hPa 0,2 l/m 0 min 2 min 0 W/m 9,7 km/h (2 Bft) 98,31 %
30.06.2023 03:28 15,7 C 15,0 C 11,1 C 97 % 1014,4 hPa 0,0 l/m 0 min 2 min 0 W/m 6,4 km/h (2 Bft) 100,00 %
30.06.2023 03:30 15,8 C 15,0 C 11,7 C 97 % 1014,3 hPa 0,0 l/m 0 min 2 min 0 W/m 3,2 km/h (1 Bft) 100,00 %
30.06.2023 03:32 15,8 C 15,0 C 11,1 C 97 % 1014,4 hPa 0,0 l/m 0 min 2 min 0 W/m 6,4 km/h (2 Bft) 100,00 %
30.06.2023 03:34 15,8 C 15,0 C 11,1 C 97 % 1014,4 hPa 0,0 l/m 0 min 2 min 0 W/m 6,4 km/h (2 Bft) 100,00 %
30.06.2023 03:36 15,8 C 15,0 C 11,1 C 97 % 1014,3 hPa 0,0 l/m 0 min 2 min 0 W/m 3,2 km/h (1 Bft) 100,00 %
30.06.2023 03:38 15,8 C 15,0 C 11,1 C 97 % 1014,3 hPa 0,0 l/m 0 min 2 min 0 W/m 9,7 km/h (2 Bft) 97,87 %
30.06.2023 03:40 15,7 C 15,0 C 11,1 C 97 % 1014,2 hPa 0,2 l/m 0 min 2 min 0 W/m 3,2 km/h (1 Bft) 98,00 %
30.06.2023 03:42 15,7 C 15,0 C 11,1 C 97 % 1014,3 hPa 0,0 l/m 0 min 2 min 0 W/m 6,4 km/h (2 Bft) 100,00 %
30.06.2023 03:44 15,7 C 15,0 C 11,1 C 97 % 1014,3 hPa 0,0 l/m 0 min 2 min 0 W/m 6,4 km/h (2 Bft) 97,87 %
30.06.2023 03:46 15,7 C 14,4 C 11,1 C 97 % 1014,2 hPa 0,0 l/m 0 min 2 min 0 W/m 3,2 km/h (1 Bft) 100,00 %
30.06.2023 03:48 15,7 C 14,4 C 11,1 C 97 % 1014,2 hPa 0,0 l/m 0 min 0 min 0 W/m 6,4 km/h (2 Bft) 95,74 %
30.06.2023 03:50 15,7 C 14,4 C 11,1 C 97 % 1014,1 hPa 0,0 l/m 0 min 0 min 0 W/m 3,2 km/h (1 Bft) 97,96 %
30.06.2023 03:52 15,7 C 14,4 C 11,1 C 97 % 1014,1 hPa 0,0 l/m 0 min 0 min 0 W/m 9,7 km/h (2 Bft) 97,87 %
30.06.2023 03:54 15,7 C 14,4 C 11,1 C 97 % 1014,0 hPa 0,0 l/m 0 min 0 min 0 W/m 6,4 km/h (2 Bft) 98,04 %
30.06.2023 03:56 15,6 C 14,4 C 11,1 C 97 % 1014,0 hPa 0,0 l/m 0 min 2 min 0 W/m 9,7 km/h (2 Bft) 97,92 %
30.06.2023 03:58 15,6 C 14,4 C 11,1 C 97 % 1014,0 hPa 0,0 l/m 0 min 2 min 0 W/m 3,2 km/h (1 Bft) 100,00 %
30.06.2023 04:00 15,6 C 14,4 C 11,1 C 97 % 1014,0 hPa 0,0 l/m 0 min 0 min 0 W/m 6,4 km/h (2 Bft) 100,00 %
30.06.2023 04:02 15,6 C 14,4 C 11,1 C 97 % 1014,0 hPa 0,0 l/m 0 min 0 min 0 W/m 6,4 km/h (2 Bft) 100,00 %
30.06.2023 04:04 15,6 C 14,4 C 11,1 C 97 % 1014,0 hPa 0,0 l/m 0 min 0 min 0 W/m 6,4 km/h (2 Bft) 100,00 %
30.06.2023 04:08 15,4 C 14,4 C 11,1 C 97 % 1014,1 hPa 0,0 l/m 0 min 0 min 0 W/m 12,9 km/h (3 Bft) 96,81 %
30.06.2023 04:10 15,4 C 14,4 C 11,1 C 97 % 1014,0 hPa 0,0 l/m 0 min 0 min 0 W/m 12,9 km/h (3 Bft) 97,44 %
30.06.2023 04:12 15,4 C 14,4 C 10,6 C 97 % 1014,2 hPa 0,0 l/m 0 min 0 min 0 W/m 16,1 km/h (3 Bft) 97,87 %
30.06.2023 04:14 15,4 C 14,4 C 11,1 C 97 % 1014,2 hPa 0,0 l/m 0 min 0 min 0 W/m 3,2 km/h (1 Bft) 97,87 %
30.06.2023 04:16 15,4 C 14,4 C 11,1 C 97 % 1014,2 hPa 0,0 l/m 0 min 0 min 0 W/m 6,4 km/h (2 Bft) 100,00 %
30.06.2023 04:18 15,4 C 14,4 C 11,1 C 97 % 1014,2 hPa 0,0 l/m 0 min 0 min 0 W/m 6,4 km/h (2 Bft) 100,00 %
30.06.2023 04:20 15,4 C 14,4 C 11,1 C 97 % 1014,3 hPa 0,0 l/m 0 min 0 min 0 W/m 6,4 km/h (2 Bft) 100,00 %
30.06.2023 04:22 15,3 C 14,4 C 11,1 C 97 % 1014,2 hPa 0,0 l/m 0 min 0 min 0 W/m 9,7 km/h (2 Bft) 100,00 %
30.06.2023 04:24 15,4 C 14,4 C 11,1 C 97 % 1014,3 hPa 0,0 l/m 0 min 0 min 0 W/m 3,2 km/h (1 Bft) 100,00 %
30.06.2023 04:26 15,4 C 14,4 C 11,1 C 97 % 1014,3 hPa 0,0 l/m 0 min 0 min 0 W/m 3,2 km/h (1 Bft) 97,87 %
30.06.2023 04:28 15,4 C 14,4 C 11,1 C 97 % 1014,5 hPa 0,0 l/m 0 min 0 min 0 W/m 3,2 km/h (1 Bft) 97,87 %
30.06.2023 04:30 15,4 C 14,4 C 11,1 C 97 % 1014,5 hPa 0,0 l/m 0 min 0 min 0 W/m 6,4 km/h (2 Bft) 100,00 %
30.06.2023 04:32 15,4 C 14,4 C 11,1 C 97 % 1014,5 hPa 0,0 l/m 0 min 0 min 0 W/m 9,7 km/h (2 Bft) 100,00 %
30.06.2023 04:34 15,4 C 14,4 C 11,1 C 97 % 1014,5 hPa 0,0 l/m 0 min 0 min 0 W/m 9,7 km/h (2 Bft) 100,00 %
30.06.2023 04:36 15,3 C 14,4 C 11,1 C 97 % 1014,5 hPa 0,0 l/m 0 min 0 min 0 W/m 3,2 km/h (1 Bft) 97,87 %
30.06.2023 04:38 15,3 C 14,4 C 11,1 C 97 % 1014,4 hPa 0,0 l/m 0 min 0 min 0 W/m 12,9 km/h (3 Bft) 93,62 %
30.06.2023 04:40 15,3 C 14,4 C 11,1 C 97 % 1014,4 hPa 0,0 l/m 0 min 0 min 0 W/m 0,0 km/h (0 Bft) 97,87 %
30.06.2023 04:42 15,3 C 14,4 C 11,1 C 97 % 1014,5 hPa 0,0 l/m 0 min 0 min 0 W/m 9,7 km/h (2 Bft) 95,74 %
30.06.2023 04:44 15,3 C 14,4 C 11,1 C 97 % 1014,6 hPa 0,0 l/m 0 min 0 min 0 W/m 3,2 km/h (1 Bft) 95,74 %
30.06.2023 04:46 15,3 C 14,4 C 11,1 C 97 % 1014,6 hPa 0,0 l/m 0 min 0 min 0 W/m 3,2 km/h (1 Bft) 97,87 %
30.06.2023 04:48 15,3 C 14,4 C 11,1 C 97 % 1014,6 hPa 0,0 l/m 0 min 0 min 0 W/m 6,4 km/h (2 Bft) 95,74 %
30.06.2023 04:50 15,3 C 14,4 C 11,1 C 97 % 1014,6 hPa 0,0 l/m 0 min 0 min 0 W/m 9,7 km/h (2 Bft) 95,65 %
30.06.2023 04:52 15,3 C 14,4 C 11,1 C 97 % 1014,6 hPa 0,0 l/m 0 min 0 min 0 W/m 3,2 km/h (1 Bft) 95,74 %
30.06.2023 04:54 15,3 C 14,4 C 11,1 C 97 % 1014,6 hPa 0,0 l/m 0 min 0 min 0 W/m 6,4 km/h (2 Bft) 95,74 %
30.06.2023 04:56 15,3 C 14,4 C 11,1 C 97 % 1014,6 hPa 0,0 l/m 0 min 0 min 0 W/m 6,4 km/h (2 Bft) 93,62 %
30.06.2023 04:58 15,3 C 14,4 C 11,1 C 97 % 1014,6 hPa 0,0 l/m 0 min 0 min 0 W/m 3,2 km/h (1 Bft) 93,62 %
30.06.2023 05:00 15,3 C 14,4 C 11,1 C 97 % 1014,6 hPa 0,0 l/m 0 min 0 min 0 W/m 3,2 km/h (1 Bft) 95,74 %
30.06.2023 05:02 15,3 C 14,4 C 11,1 C 97 % 1014,6 hPa 0,0 l/m 0 min 0 min 0 W/m 3,2 km/h (1 Bft) 95,74 %
30.06.2023 05:04 15,3 C 14,4 C 11,1 C 97 % 1014,6 hPa 0,0 l/m 0 min 0 min 0 W/m 9,7 km/h (2 Bft) 95,74 %
30.06.2023 05:06 15,3 C 14,4 C 11,1 C 97 % 1014,6 hPa 0,0 l/m 0 min 0 min 0 W/m 6,4 km/h (2 Bft) 96,55 %
30.06.2023 05:08 15,3 C 14,4 C 11,1 C 97 % 1014,5 hPa 0,0 l/m 0 min 0 min 0 W/m 6,4 km/h (2 Bft) 94,29 %
30.06.2023 05:10 15,3 C 14,4 C 11,1 C 97 % 1014,5 hPa 0,0 l/m 0 min 0 min 0 W/m 6,4 km/h (2 Bft) 95,74 %
30.06.2023 05:12 15,3 C 14,4 C 11,1 C 97 % 1014,5 hPa 0,0 l/m 0 min 0 min 0 W/m 6,4 km/h (2 Bft) 93,62 %
30.06.2023 05:14 15,3 C 14,4 C 11,1 C 97 % 1014,5 hPa 0,0 l/m 0 min 0 min 0 W/m 6,4 km/h (2 Bft) 95,74 %
30.06.2023 05:16 15,3 C 14,4 C 11,1 C 97 % 1014,4 hPa 0,0 l/m 0 min 0 min 0 W/m 12,9 km/h (3 Bft) 93,62 %
30.06.2023 05:18 15,3 C 14,4 C 11,1 C 97 % 1014,4 hPa 0,0 l/m 0 min 0 min 0 W/m 3,2 km/h (1 Bft) 95,74 %
30.06.2023 05:20 15,3 C 14,4 C 10,6 C 97 % 1014,4 hPa 0,0 l/m 0 min 0 min 0 W/m 6,4 km/h (2 Bft) 95,74 %
30.06.2023 05:22 15,2 C 14,4 C 10,6 C 97 % 1014,5 hPa 0,0 l/m 0 min 0 min 0 W/m 6,4 km/h (2 Bft) 95,74 %
30.06.2023 05:24 15,2 C 14,4 C 10,6 C 97 % 1014,5 hPa 0,0 l/m 0 min 0 min 0 W/m 3,2 km/h (1 Bft) 93,62 %
30.06.2023 05:26 15,2 C 14,4 C 11,1 C 97 % 1014,4 hPa 0,0 l/m 0 min 0 min 0 W/m 6,4 km/h (2 Bft) 93,48 %
30.06.2023 05:28 15,2 C 14,4 C 11,1 C 97 % 1014,5 hPa 0,0 l/m 0 min 0 min 0 W/m 6,4 km/h (2 Bft) 95,74 %
30.06.2023 05:30 15,2 C 14,4 C 11,1 C 97 % 1014,5 hPa 0,0 l/m 0 min 0 min 0 W/m 3,2 km/h (1 Bft) 95,74 %
30.06.2023 05:32 15,2 C 14,4 C 11,1 C 97 % 1014,5 hPa 0,0 l/m 0 min 0 min 0 W/m 6,4 km/h (2 Bft) 89,36 %
30.06.2023 05:34 15,2 C 14,4 C 11,1 C 97 % 1014,4 hPa 0,0 l/m 0 min 0 min 0 W/m 6,4 km/h (2 Bft) 95,74 %
30.06.2023 05:36 15,2 C 14,4 C 11,1 C 97 % 1014,5 hPa 0,0 l/m 0 min 0 min 0 W/m 9,7 km/h (2 Bft) 95,74 %
30.06.2023 05:38 15,2 C 14,4 C 11,1 C 97 % 1014,5 hPa 0,0 l/m 0 min 0 min 0 W/m 6,4 km/h (2 Bft) 95,74 %
30.06.2023 05:40 15,2 C 14,4 C 11,1 C 97 % 1014,5 hPa 0,0 l/m 0 min 0 min 0 W/m 6,4 km/h (2 Bft) 93,62 %
30.06.2023 05:42 15,2 C 14,4 C 11,1 C 97 % 1014,4 hPa 0,0 l/m 0 min 0 min 0 W/m 3,2 km/h (1 Bft) 97,83 %
30.06.2023 05:44 15,2 C 14,4 C 11,1 C 97 % 1014,4 hPa 0,0 l/m 0 min 0 min 0 W/m 6,4 km/h (2 Bft) 97,87 %
30.06.2023 05:46 15,2 C 14,4 C 10,6 C 97 % 1014,3 hPa 0,0 l/m 0 min 0 min 0 W/m 6,4 km/h (2 Bft) 95,74 %
30.06.2023 05:48 15,2 C 14,4 C 11,1 C 97 % 1014,3 hPa 0,0 l/m 0 min 0 min 0 W/m 3,2 km/h (1 Bft) 97,87 %
30.06.2023 05:50 15,2 C 14,4 C 11,1 C 97 % 1014,2 hPa 0,0 l/m 0 min 0 min 0 W/m 6,4 km/h (2 Bft) 97,87 %
30.06.2023 05:52 15,2 C 14,4 C 10,6 C 97 % 1014,3 hPa 0,0 l/m 0 min 0 min 0 W/m 6,4 km/h (2 Bft) 97,87 %
30.06.2023 05:54 15,2 C 14,4 C 10,6 C 97 % 1014,3 hPa 0,0 l/m 0 min 0 min 0 W/m 6,4 km/h (2 Bft) 97,87 %
30.06.2023 05:56 15,1 C 14,4 C 11,1 C 97 % 1014,4 hPa 0,0 l/m 0 min 0 min 2 W/m 3,2 km/h (1 Bft) 93,62 %
30.06.2023 05:58 15,1 C 14,4 C 11,1 C 97 % 1014,4 hPa 0,0 l/m 0 min 0 min 5 W/m 0,0 km/h (0 Bft) 97,87 %
30.06.2023 06:00 15,2 C 14,4 C 11,1 C 97 % 1014,4 hPa 0,0 l/m 0 min 0 min 6 W/m 0,0 km/h (0 Bft) 97,83 %
30.06.2023 06:02 15,2 C 14,4 C 11,1 C 97 % 1014,4 hPa 0,0 l/m 0 min 0 min 7 W/m 3,2 km/h (1 Bft) 100,00 %
30.06.2023 06:04 15,2 C 14,4 C 11,1 C 97 % 1014,4 hPa 0,0 l/m 0 min 0 min 7 W/m 0,0 km/h (0 Bft) 100,00 %
30.06.2023 06:08 15,2 C 14,4 C 11,1 C 97 % 1014,4 hPa 0,0 l/m 0 min 0 min 11 W/m 6,4 km/h (2 Bft) 98,97 %
30.06.2023 06:10 15,2 C 14,4 C 11,1 C 97 % 1014,3 hPa 0,0 l/m 0 min 0 min 15 W/m 3,2 km/h (1 Bft) 100,00 %
30.06.2023 06:12 15,2 C 14,4 C 11,1 C 97 % 1014,4 hPa 0,0 l/m 0 min 0 min 17 W/m 0,0 km/h (0 Bft) 100,00 %
30.06.2023 06:14 15,2 C 14,4 C 11,1 C 97 % 1014,5 hPa 0,0 l/m 0 min 0 min 18 W/m 3,2 km/h (1 Bft) 100,00 %
30.06.2023 06:16 15,2 C 14,4 C 11,1 C 97 % 1014,5 hPa 0,0 l/m 0 min 0 min 19 W/m 3,2 km/h (1 Bft) 100,00 %
30.06.2023 06:18 15,2 C 14,4 C 11,1 C 97 % 1014,5 hPa 0,0 l/m 0 min 0 min 19 W/m 6,4 km/h (2 Bft) 100,00 %
30.06.2023 06:20 15,2 C 14,4 C 11,1 C 97 % 1014,5 hPa 0,0 l/m 0 min 0 min 19 W/m 3,2 km/h (1 Bft) 100,00 %
30.06.2023 06:22 15,2 C 14,4 C 11,1 C 97 % 1014,5 hPa 0,0 l/m 0 min 0 min 18 W/m 3,2 km/h (1 Bft) 100,00 %
30.06.2023 06:24 15,2 C 14,4 C 11,1 C 97 % 1014,5 hPa 0,0 l/m 0 min 0 min 20 W/m 6,4 km/h (2 Bft) 100,00 %
30.06.2023 06:26 15,2 C 14,4 C 11,1 C 97 % 1014,5 hPa 0,0 l/m 0 min 0 min 23 W/m 3,2 km/h (1 Bft) 100,00 %
30.06.2023 06:28 15,2 C 14,4 C 11,1 C 97 % 1014,5 hPa 0,0 l/m 0 min 0 min 25 W/m 3,2 km/h (1 Bft) 100,00 %
30.06.2023 06:30 15,2 C 14,4 C 11,1 C 97 % 1014,4 hPa 0,0 l/m 0 min 0 min 27 W/m 0,0 km/h (0 Bft) 97,87 %
30.06.2023 06:32 15,1 C 14,4 C 10,6 C 97 % 1014,5 hPa 0,0 l/m 0 min 0 min 30 W/m 9,7 km/h (2 Bft) 100,00 %
30.06.2023 06:34 15,1 C 14,4 C 10,6 C 97 % 1014,5 hPa 0,0 l/m 0 min 0 min 32 W/m 6,4 km/h (2 Bft) 100,00 %
30.06.2023 06:36 15,1 C 14,4 C 11,1 C 97 % 1014,5 hPa 0,0 l/m 0 min 0 min 34 W/m 6,4 km/h (2 Bft) 100,00 %
30.06.2023 06:38 15,1 C 14,4 C 11,1 C 97 % 1014,5 hPa 0,0 l/m 0 min 0 min 35 W/m 3,2 km/h (1 Bft) 100,00 %
30.06.2023 06:40 15,1 C 14,4 C 11,1 C 97 % 1014,4 hPa 0,0 l/m 0 min 0 min 35 W/m 3,2 km/h (1 Bft) 100,00 %
30.06.2023 06:42 15,1 C 14,4 C 11,1 C 97 % 1014,4 hPa 0,0 l/m 0 min 0 min 38 W/m 3,2 km/h (1 Bft) 97,87 %
30.06.2023 06:44 15,1 C 14,4 C 11,1 C 97 % 1014,4 hPa 0,0 l/m 0 min 0 min 40 W/m 9,7 km/h (2 Bft) 100,00 %
30.06.2023 06:46 15,1 C 14,4 C 11,1 C 97 % 1014,4 hPa 0,0 l/m 0 min 0 min 40 W/m 0,0 km/h (0 Bft) 100,00 %
30.06.2023 06:48 15,1 C 14,4 C 11,1 C 97 % 1014,5 hPa 0,0 l/m 0 min 0 min 40 W/m 0,0 km/h (0 Bft) 100,00 %
30.06.2023 06:50 15,1 C 14,4 C 10,6 C 97 % 1014,4 hPa 0,0 l/m 0 min 0 min 41 W/m 6,4 km/h (2 Bft) 100,00 %
30.06.2023 06:52 15,1 C 14,4 C 10,6 C 97 % 1014,5 hPa 0,0 l/m 0 min 0 min 46 W/m 6,4 km/h (2 Bft) 100,00 %
30.06.2023 06:54 15,1 C 14,4 C 11,1 C 97 % 1014,5 hPa 0,0 l/m 0 min 0 min 47 W/m 6,4 km/h (2 Bft) 100,00 %
30.06.2023 06:56 15,1 C 14,4 C 11,1 C 97 % 1014,5 hPa 0,0 l/m 0 min 0 min 46 W/m 3,2 km/h (1 Bft) 100,00 %
30.06.2023 06:58 15,1 C 14,4 C 10,6 C 97 % 1014,5 hPa 0,0 l/m 0 min 0 min 46 W/m 6,4 km/h (2 Bft) 100,00 %
30.06.2023 07:00 15,0 C 14,4 C 11,1 C 97 % 1014,6 hPa 0,0 l/m 0 min 0 min 46 W/m 6,4 km/h (2 Bft) 100,00 %
30.06.2023 07:02 15,0 C 14,4 C 10,6 C 97 % 1014,5 hPa 0,0 l/m 0 min 0 min 45 W/m 6,4 km/h (2 Bft) 100,00 %
30.06.2023 07:04 15,0 C 14,4 C 10,6 C 97 % 1014,5 hPa 0,0 l/m 0 min 0 min 43 W/m 3,2 km/h (1 Bft) 95,74 %
30.06.2023 07:06 14,9 C 14,4 C 10,6 C 97 % 1014,5 hPa 0,0 l/m 0 min 0 min 44 W/m 6,4 km/h (2 Bft) 100,00 %
30.06.2023 07:08 14,9 C 14,4 C 10,6 C 97 % 1014,5 hPa 0,0 l/m 0 min 0 min 47 W/m 3,2 km/h (1 Bft) 97,87 %
30.06.2023 07:10 14,9 C 14,4 C 10,6 C 97 % 1014,5 hPa 0,0 l/m 0 min 0 min 49 W/m 6,4 km/h (2 Bft) 100,00 %
30.06.2023 07:12 14,9 C 14,4 C 10,6 C 97 % 1014,6 hPa 0,0 l/m 0 min 0 min 49 W/m 6,4 km/h (2 Bft) 97,87 %
30.06.2023 07:14 14,9 C 14,4 C 10,6 C 97 % 1014,6 hPa 0,0 l/m 0 min 0 min 49 W/m 3,2 km/h (1 Bft) 100,00 %
30.06.2023 07:16 14,9 C 14,4 C 11,1 C 97 % 1014,6 hPa 0,0 l/m 0 min 0 min 57 W/m 3,2 km/h (1 Bft) 97,87 %
30.06.2023 07:18 14,9 C 14,4 C 11,1 C 97 % 1014,6 hPa 0,0 l/m 0 min 0 min 70 W/m 6,4 km/h (2 Bft) 93,48 %
30.06.2023 07:20 14,9 C 15,0 C 11,1 C 97 % 1014,6 hPa 0,0 l/m 0 min 0 min 77 W/m 3,2 km/h (1 Bft) 97,87 %
30.06.2023 07:22 14,9 C 15,0 C 11,1 C 97 % 1014,6 hPa 0,0 l/m 0 min 0 min 75 W/m 3,2 km/h (1 Bft) 95,74 %
30.06.2023 07:24 14,9 C 15,0 C 11,1 C 97 % 1014,6 hPa 0,0 l/m 0 min 0 min 73 W/m 3,2 km/h (1 Bft) 97,87 %
30.06.2023 07:26 14,9 C 15,0 C 11,1 C 97 % 1014,6 hPa 0,0 l/m 0 min 0 min 71 W/m 3,2 km/h (1 Bft) 95,74 %
30.06.2023 07:28 14,9 C 15,0 C 11,7 C 97 % 1014,6 hPa 0,0 l/m 0 min 0 min 72 W/m 6,4 km/h (2 Bft) 97,87 %
30.06.2023 07:30 14,9 C 15,0 C 11,1 C 97 % 1014,6 hPa 0,0 l/m 0 min 0 min 68 W/m 9,7 km/h (2 Bft) 97,87 %
30.06.2023 07:32 14,9 C 15,0 C 11,1 C 97 % 1014,6 hPa 0,0 l/m 0 min 0 min 65 W/m 6,4 km/h (2 Bft) 95,65 %
30.06.2023 07:34 14,8 C 15,0 C 11,1 C 97 % 1014,6 hPa 0,0 l/m 0 min 0 min 66 W/m 6,4 km/h (2 Bft) 95,74 %
30.06.2023 07:36 14,8 C 15,0 C 11,1 C 96 % 1014,6 hPa 0,0 l/m 0 min 0 min 68 W/m 3,2 km/h (1 Bft) 93,62 %
30.06.2023 07:38 14,8 C 15,0 C 11,1 C 96 % 1014,7 hPa 0,0 l/m 0 min 0 min 69 W/m 6,4 km/h (2 Bft) 95,74 %
30.06.2023 07:40 14,8 C 15,0 C 11,7 C 96 % 1014,6 hPa 0,0 l/m 0 min 0 min 72 W/m 0,0 km/h (0 Bft) 95,74 %
30.06.2023 07:42 14,8 C 15,0 C 11,7 C 96 % 1014,6 hPa 0,0 l/m 0 min 0 min 124 W/m 0,0 km/h (0 Bft) 97,87 %
30.06.2023 07:44 14,8 C 15,0 C 11,7 C 96 % 1014,7 hPa 0,0 l/m 2 min 0 min 192 W/m 12,9 km/h (3 Bft) 95,74 %
30.06.2023 07:46 14,8 C 15,0 C 11,7 C 96 % 1014,7 hPa 0,0 l/m 2 min 0 min 198 W/m 6,4 km/h (2 Bft) 93,48 %
30.06.2023 07:48 14,8 C 15,0 C 11,7 C 96 % 1014,6 hPa 0,0 l/m 2 min 0 min 194 W/m 12,9 km/h (3 Bft) 93,62 %
30.06.2023 07:50 14,8 C 15,0 C 11,7 C 96 % 1014,7 hPa 0,0 l/m 2 min 0 min 194 W/m 9,7 km/h (2 Bft) 95,74 %
30.06.2023 07:52 14,8 C 15,0 C 11,7 C 96 % 1014,7 hPa 0,0 l/m 2 min 0 min 197 W/m 9,7 km/h (2 Bft) 95,74 %
30.06.2023 07:54 14,8 C 15,0 C 11,7 C 96 % 1014,7 hPa 0,0 l/m 0 min 0 min 166 W/m 12,9 km/h (3 Bft) 95,74 %
30.06.2023 07:56 14,8 C 15,0 C 11,7 C 96 % 1014,7 hPa 0,0 l/m 0 min 0 min 178 W/m 9,7 km/h (2 Bft) 95,74 %
30.06.2023 07:58 14,8 C 15,0 C 11,7 C 96 % 1014,7 hPa 0,0 l/m 0 min 0 min 123 W/m 6,4 km/h (2 Bft) 93,48 %
30.06.2023 08:00 14,8 C 15,0 C 11,7 C 95 % 1014,6 hPa 0,0 l/m 2 min 0 min 200 W/m 6,4 km/h (2 Bft) 95,74 %
30.06.2023 08:02 14,8 C 15,6 C 11,7 C 95 % 1014,7 hPa 0,0 l/m 2 min 0 min 233 W/m 6,4 km/h (2 Bft) 95,74 %
30.06.2023 08:04 14,8 C 15,6 C 11,7 C 95 % 1014,6 hPa 0,0 l/m 2 min 0 min 251 W/m 6,4 km/h (2 Bft) 93,62 %
30.06.2023 08:06 14,9 C 15,6 C 11,7 C 95 % 1014,7 hPa 0,0 l/m 2 min 0 min 277 W/m 9,7 km/h (2 Bft) 93,62 %
30.06.2023 08:08 14,9 C 16,1 C 12,2 C 95 % 1014,7 hPa 0,0 l/m 2 min 0 min 303 W/m 6,4 km/h (2 Bft) 95,74 %
30.06.2023 08:10 15,0 C 16,7 C 12,2 C 95 % 1014,7 hPa 0,0 l/m 2 min 0 min 323 W/m 9,7 km/h (2 Bft) 95,74 %
30.06.2023 08:12 15,1 C 17,2 C 12,2 C 95 % 1014,7 hPa 0,0 l/m 2 min 0 min 329 W/m 6,4 km/h (2 Bft) 95,65 %
30.06.2023 08:14 15,2 C 17,8 C 12,2 C 95 % 1014,7 hPa 0,0 l/m 2 min 0 min 337 W/m 12,9 km/h (3 Bft) 95,74 %
30.06.2023 08:16 15,3 C 18,3 C 12,2 C 94 % 1014,7 hPa 0,0 l/m 2 min 0 min 349 W/m 9,7 km/h (2 Bft) 95,74 %
30.06.2023 08:18 15,4 C 18,9 C 12,8 C 94 % 1014,7 hPa 0,0 l/m 2 min 0 min 351 W/m 6,4 km/h (2 Bft) 93,62 %
30.06.2023 08:20 15,5 C 18,9 C 12,8 C 94 % 1014,8 hPa 0,0 l/m 2 min 0 min 346 W/m 12,9 km/h (3 Bft) 93,62 %
30.06.2023 08:22 15,6 C 18,9 C 12,8 C 94 % 1014,8 hPa 0,0 l/m 2 min 0 min 329 W/m 12,9 km/h (3 Bft) 95,74 %
30.06.2023 08:24 15,6 C 18,3 C 12,8 C 93 % 1014,9 hPa 0,0 l/m 0 min 0 min 131 W/m 9,7 km/h (2 Bft) 95,65 %
30.06.2023 08:26 15,7 C 17,2 C 12,8 C 93 % 1014,9 hPa 0,0 l/m 0 min 0 min 123 W/m 6,4 km/h (2 Bft) 93,62 %
30.06.2023 08:28 15,7 C 17,2 C 12,2 C 92 % 1014,9 hPa 0,0 l/m 0 min 0 min 129 W/m 3,2 km/h (1 Bft) 94,74 %
30.06.2023 08:30 15,8 C 17,2 C 12,8 C 92 % 1014,9 hPa 0,0 l/m 0 min 0 min 164 W/m 3,2 km/h (1 Bft) 95,74 %
30.06.2023 08:32 15,8 C 18,3 C 12,8 C 91 % 1015,0 hPa 0,0 l/m 2 min 0 min 285 W/m 9,7 km/h (2 Bft) 93,62 %
30.06.2023 08:34 15,9 C 19,4 C 12,8 C 91 % 1015,0 hPa 0,0 l/m 2 min 0 min 349 W/m 6,4 km/h (2 Bft) 100,00 %
30.06.2023 08:36 16,0 C 20,0 C 13,3 C 91 % 1015,0 hPa 0,0 l/m 2 min 0 min 347 W/m 6,4 km/h (2 Bft) 100,00 %
30.06.2023 08:38 16,1 C 20,6 C 13,3 C 90 % 1015,0 hPa 0,0 l/m 2 min 0 min 345 W/m 9,7 km/h (2 Bft) 100,00 %
30.06.2023 08:40 16,3 C 20,6 C 13,9 C 90 % 1015,1 hPa 0,0 l/m 2 min 0 min 344 W/m 12,9 km/h (3 Bft) 97,87 %
30.06.2023 08:42 16,3 C 21,1 C 13,9 C 90 % 1015,0 hPa 0,0 l/m 2 min 0 min 350 W/m 12,9 km/h (3 Bft) 97,87 %
30.06.2023 08:44 16,4 C 21,1 C 13,9 C 89 % 1015,0 hPa 0,0 l/m 2 min 0 min 362 W/m 6,4 km/h (2 Bft) 100,00 %
30.06.2023 08:46 16,6 C 21,7 C 14,4 C 88 % 1015,0 hPa 0,0 l/m 2 min 0 min 369 W/m 6,4 km/h (2 Bft) 100,00 %
30.06.2023 08:48 16,7 C 21,7 C 14,4 C 88 % 1015,0 hPa 0,0 l/m 2 min 0 min 375 W/m 12,9 km/h (3 Bft) 97,83 %
30.06.2023 08:50 16,8 C 21,1 C 14,4 C 86 % 1015,0 hPa 0,0 l/m 2 min 0 min 384 W/m 12,9 km/h (3 Bft) 100,00 %
30.06.2023 08:52 16,8 C 21,1 C 14,4 C 86 % 1014,9 hPa 0,0 l/m 2 min 0 min 409 W/m 9,7 km/h (2 Bft) 100,00 %
30.06.2023 08:54 17,0 C 21,7 C 14,4 C 86 % 1015,0 hPa 0,0 l/m 2 min 0 min 428 W/m 9,7 km/h (2 Bft) 100,00 %
30.06.2023 08:56 17,1 C 22,2 C 14,4 C 85 % 1015,0 hPa 0,0 l/m 2 min 0 min 444 W/m 9,7 km/h (2 Bft) 100,00 %
30.06.2023 08:58 17,2 C 22,2 C 15,0 C 85 % 1015,0 hPa 0,0 l/m 2 min 0 min 456 W/m 9,7 km/h (2 Bft) 97,87 %
30.06.2023 09:00 17,2 C 22,8 C 15,0 C 84 % 1015,0 hPa 0,0 l/m 2 min 0 min 446 W/m 9,7 km/h (2 Bft) 97,83 %
30.06.2023 09:02 17,3 C 22,8 C 15,0 C 83 % 1015,0 hPa 0,0 l/m 2 min 0 min 448 W/m 9,7 km/h (2 Bft) 100,00 %
30.06.2023 09:04 17,4 C 22,8 C 15,0 C 82 % 1014,9 hPa 0,0 l/m 2 min 0 min 452 W/m 19,3 km/h (3 Bft) 100,00 %
30.06.2023 09:06 17,4 C 22,8 C 15,0 C 81 % 1014,9 hPa 0,0 l/m 2 min 0 min 452 W/m 9,7 km/h (2 Bft) 100,00 %
30.06.2023 09:12 17,7 C 22,2 C 15,0 C 80 % 1015,0 hPa 0,0 l/m 5 min 0 min 464 W/m 6,4 km/h (2 Bft) 100,00 %
30.06.2023 09:14 17,7 C 21,7 C 15,0 C 79 % 1015,0 hPa 0,0 l/m 2 min 0 min 470 W/m 19,3 km/h (3 Bft) 97,87 %
30.06.2023 09:16 17,7 C 21,7 C 15,0 C 78 % 1015,0 hPa 0,0 l/m 2 min 0 min 486 W/m 16,1 km/h (3 Bft) 97,87 %
30.06.2023 09:18 17,8 C 22,2 C 15,6 C 77 % 1015,0 hPa 0,0 l/m 2 min 0 min 496 W/m 19,3 km/h (3 Bft) 97,83 %
30.06.2023 09:20 17,8 C 22,8 C 15,6 C 77 % 1015,0 hPa 0,0 l/m 2 min 0 min 503 W/m 12,9 km/h (3 Bft) 97,87 %
30.06.2023 09:22 17,9 C 23,3 C 16,1 C 77 % 1015,0 hPa 0,0 l/m 2 min 0 min 518 W/m 19,3 km/h (3 Bft) 97,87 %
30.06.2023 09:24 17,9 C 22,2 C 16,1 C 76 % 1015,0 hPa 0,0 l/m 2 min 0 min 530 W/m 16,1 km/h (3 Bft) 95,74 %
30.06.2023 09:26 17,8 C 21,7 C 15,6 C 75 % 1015,0 hPa 0,0 l/m 2 min 0 min 538 W/m 6,4 km/h (2 Bft) 97,87 %
30.06.2023 09:28 17,9 C 21,7 C 16,1 C 76 % 1015,1 hPa 0,0 l/m 2 min 0 min 542 W/m 19,3 km/h (3 Bft) 97,87 %
30.06.2023 09:30 17,9 C 22,2 C 16,1 C 75 % 1015,1 hPa 0,0 l/m 2 min 0 min 547 W/m 12,9 km/h (3 Bft) 97,87 %
30.06.2023 09:32 18,1 C 23,3 C 16,1 C 76 % 1015,1 hPa 0,0 l/m 2 min 0 min 548 W/m 9,7 km/h (2 Bft) 97,83 %
30.06.2023 09:34 18,2 C 23,3 C 16,1 C 76 % 1015,1 hPa 0,0 l/m 2 min 0 min 550 W/m 12,9 km/h (3 Bft) 95,74 %
30.06.2023 09:36 18,3 C 23,3 C 16,7 C 76 % 1015,0 hPa 0,0 l/m 2 min 0 min 553 W/m 19,3 km/h (3 Bft) 97,87 %
30.06.2023 09:38 18,3 C 22,8 C 16,7 C 74 % 1015,0 hPa 0,0 l/m 2 min 0 min 561 W/m 12,9 km/h (3 Bft) 97,87 %
30.06.2023 09:40 18,3 C 22,2 C 16,7 C 74 % 1015,0 hPa 0,0 l/m 2 min 0 min 560 W/m 9,7 km/h (2 Bft) 97,87 %
30.06.2023 09:42 18,3 C 22,2 C 16,7 C 74 % 1015,0 hPa 0,0 l/m 2 min 0 min 569 W/m 19,3 km/h (3 Bft) 100,00 %
30.06.2023 09:44 18,4 C 22,2 C 16,7 C 73 % 1015,1 hPa 0,0 l/m 2 min 0 min 576 W/m 22,5 km/h (4 Bft) 97,83 %
30.06.2023 09:46 18,4 C 22,2 C 16,7 C 72 % 1015,1 hPa 0,0 l/m 2 min 0 min 584 W/m 16,1 km/h (3 Bft) 100,00 %
30.06.2023 09:48 18,5 C 22,2 C 17,2 C 72 % 1015,1 hPa 0,0 l/m 2 min 0 min 584 W/m 16,1 km/h (3 Bft) 100,00 %
30.06.2023 09:50 18,6 C 22,8 C 16,7 C 72 % 1015,1 hPa 0,0 l/m 2 min 0 min 588 W/m 9,7 km/h (2 Bft) 100,00 %
30.06.2023 09:52 18,6 C 22,8 C 17,2 C 72 % 1015,1 hPa 0,0 l/m 2 min 0 min 581 W/m 9,7 km/h (2 Bft) 100,00 %
30.06.2023 09:54 18,6 C 22,2 C 17,2 C 72 % 1015,1 hPa 0,0 l/m 2 min 0 min 585 W/m 12,9 km/h (3 Bft) 100,00 %
30.06.2023 09:56 18,6 C 22,8 C 17,2 C 71 % 1015,1 hPa 0,0 l/m 2 min 0 min 593 W/m 12,9 km/h (3 Bft) 100,00 %
30.06.2023 09:58 18,7 C 22,8 C 17,8 C 71 % 1015,1 hPa 0,0 l/m 2 min 0 min 607 W/m 19,3 km/h (3 Bft) 100,00 %
30.06.2023 10:00 18,8 C 22,8 C 17,8 C 72 % 1015,1 hPa 0,0 l/m 2 min 0 min 618 W/m 12,9 km/h (3 Bft) 100,00 %
30.06.2023 10:02 18,8 C 22,8 C 18,3 C 72 % 1015,1 hPa 0,0 l/m 2 min 0 min 629 W/m 12,9 km/h (3 Bft) 100,00 %
30.06.2023 10:04 18,8 C 22,8 C 18,3 C 71 % 1015,1 hPa 0,0 l/m 2 min 0 min 621 W/m 6,4 km/h (2 Bft) 100,00 %
30.06.2023 10:06 18,9 C 23,3 C 18,3 C 71 % 1015,2 hPa 0,0 l/m 2 min 0 min 647 W/m 12,9 km/h (3 Bft) 100,00 %
30.06.2023 10:08 18,9 C 23,3 C 18,3 C 70 % 1015,1 hPa 0,0 l/m 2 min 0 min 658 W/m 19,3 km/h (3 Bft) 100,00 %
30.06.2023 10:10 18,9 C 23,9 C 18,9 C 71 % 1015,2 hPa 0,0 l/m 2 min 0 min 658 W/m 9,7 km/h (2 Bft) 100,00 %
30.06.2023 10:12 19,0 C 23,3 C 18,9 C 70 % 1015,2 hPa 0,0 l/m 2 min 0 min 659 W/m 16,1 km/h (3 Bft) 100,00 %
30.06.2023 10:14 19,1 C 23,3 C 19,4 C 70 % 1015,2 hPa 0,0 l/m 2 min 0 min 663 W/m 9,7 km/h (2 Bft) 100,00 %
30.06.2023 10:16 19,1 C 23,3 C 19,4 C 70 % 1015,2 hPa 0,0 l/m 2 min 0 min 672 W/m 12,9 km/h (3 Bft) 100,00 %
30.06.2023 10:18 19,2 C 23,3 C 19,4 C 70 % 1015,2 hPa 0,0 l/m 2 min 0 min 681 W/m 16,1 km/h (3 Bft) 100,00 %
30.06.2023 10:20 19,3 C 22,8 C 20,0 C 69 % 1015,2 hPa 0,0 l/m 2 min 0 min 687 W/m 9,7 km/h (2 Bft) 100,00 %
30.06.2023 10:22 19,3 C 22,8 C 20,0 C 70 % 1015,2 hPa 0,0 l/m 2 min 0 min 692 W/m 16,1 km/h (3 Bft) 97,14 %
30.06.2023 10:24 19,4 C 22,8 C 20,0 C 69 % 1015,2 hPa 0,0 l/m 2 min 0 min 695 W/m 16,1 km/h (3 Bft) 100,00 %
30.06.2023 10:26 19,3 C 22,8 C 20,0 C 70 % 1015,1 hPa 0,0 l/m 2 min 0 min 699 W/m 12,9 km/h (3 Bft) 100,00 %
30.06.2023 10:28 19,3 C 22,8 C 20,0 C 69 % 1015,1 hPa 0,0 l/m 2 min 0 min 703 W/m 9,7 km/h (2 Bft) 97,83 %
30.06.2023 10:30 19,4 C 22,2 C 20,0 C 69 % 1015,1 hPa 0,0 l/m 2 min 0 min 705 W/m 16,1 km/h (3 Bft) 97,87 %
30.06.2023 10:32 19,4 C 22,2 C 20,0 C 69 % 1015,1 hPa 0,0 l/m 2 min 0 min 708 W/m 16,1 km/h (3 Bft) 97,87 %
30.06.2023 10:34 19,5 C 22,8 C 20,6 C 68 % 1015,1 hPa 0,0 l/m 2 min 0 min 726 W/m 16,1 km/h (3 Bft) 97,87 %
30.06.2023 10:36 19,6 C 23,3 C 21,1 C 67 % 1015,1 hPa 0,0 l/m 2 min 0 min 720 W/m 9,7 km/h (2 Bft) 97,87 %
30.06.2023 10:38 19,6 C 22,8 C 20,6 C 66 % 1015,1 hPa 0,0 l/m 2 min 0 min 725 W/m 12,9 km/h (3 Bft) 97,87 %
30.06.2023 10:40 19,6 C 22,2 C 20,0 C 66 % 1015,1 hPa 0,0 l/m 2 min 0 min 751 W/m 12,9 km/h (3 Bft) 97,83 %
30.06.2023 10:42 19,6 C 21,7 C 19,4 C 66 % 1015,0 hPa 0,0 l/m 2 min 0 min 753 W/m 12,9 km/h (3 Bft) 97,87 %
30.06.2023 10:44 19,6 C 21,7 C 20,6 C 66 % 1015,0 hPa 0,0 l/m 2 min 0 min 746 W/m 12,9 km/h (3 Bft) 95,74 %
30.06.2023 10:46 19,7 C 21,7 C 20,6 C 66 % 1015,0 hPa 0,0 l/m 2 min 0 min 759 W/m 9,7 km/h (2 Bft) 97,87 %
30.06.2023 10:48 19,7 C 22,2 C 20,6 C 65 % 1015,0 hPa 0,0 l/m 2 min 0 min 753 W/m 9,7 km/h (2 Bft) 97,87 %
30.06.2023 10:50 19,8 C 22,2 C 20,6 C 65 % 1015,0 hPa 0,0 l/m 2 min 0 min 760 W/m 12,9 km/h (3 Bft) 97,87 %
30.06.2023 10:52 19,8 C 22,2 C 21,1 C 65 % 1015,1 hPa 0,0 l/m 2 min 0 min 769 W/m 6,4 km/h (2 Bft) 97,87 %
30.06.2023 10:54 19,9 C 22,8 C 21,1 C 66 % 1015,0 hPa 0,0 l/m 2 min 0 min 773 W/m 12,9 km/h (3 Bft) 97,83 %
30.06.2023 10:56 20,0 C 23,3 C 21,1 C 66 % 1015,0 hPa 0,0 l/m 2 min 0 min 774 W/m 9,7 km/h (2 Bft) 97,87 %
30.06.2023 10:58 20,1 C 23,3 C 21,1 C 66 % 1015,0 hPa 0,0 l/m 2 min 0 min 771 W/m 6,4 km/h (2 Bft) 97,87 %
30.06.2023 11:00 20,2 C 23,3 C 20,6 C 66 % 1015,0 hPa 0,0 l/m 2 min 0 min 765 W/m 9,7 km/h (2 Bft) 97,87 %
30.06.2023 11:02 20,3 C 23,3 C 20,0 C 66 % 1014,9 hPa 0,0 l/m 2 min 0 min 784 W/m 9,7 km/h (2 Bft) 95,74 %
30.06.2023 11:04 20,3 C 23,3 C 20,0 C 65 % 1015,0 hPa 0,0 l/m 2 min 0 min 800 W/m 9,7 km/h (2 Bft) 93,88 %
30.06.2023 11:06 20,3 C 23,3 C 19,4 C 65 % 1014,9 hPa 0,0 l/m 2 min 0 min 828 W/m 9,7 km/h (2 Bft) 98,28 %
30.06.2023 11:08 20,4 C 23,3 C 18,9 C 65 % 1015,0 hPa 0,0 l/m 2 min 0 min 824 W/m 6,4 km/h (2 Bft) 94,29 %
30.06.2023 11:10 20,6 C 23,3 C 18,3 C 65 % 1014,9 hPa 0,0 l/m 2 min 0 min 796 W/m 19,3 km/h (3 Bft) 93,62 %
30.06.2023 11:12 20,6 C 23,3 C 17,8 C 63 % 1014,9 hPa 0,0 l/m 2 min 0 min 722 W/m 12,9 km/h (3 Bft) 97,87 %
30.06.2023 11:14 20,6 C 23,3 C 18,3 C 63 % 1014,9 hPa 0,0 l/m 2 min 0 min 735 W/m 6,4 km/h (2 Bft) 97,87 %
30.06.2023 11:16 20,7 C 23,3 C 17,8 C 63 % 1014,9 hPa 0,0 l/m 2 min 0 min 779 W/m 6,4 km/h (2 Bft) 95,74 %
30.06.2023 11:18 20,7 C 23,3 C 18,3 C 64 % 1014,9 hPa 0,0 l/m 2 min 0 min 779 W/m 6,4 km/h (2 Bft) 97,87 %
30.06.2023 11:20 20,7 C 23,3 C 18,3 C 64 % 1014,8 hPa 0,0 l/m 2 min 0 min 830 W/m 12,9 km/h (3 Bft) 97,83 %
30.06.2023 11:22 20,7 C 23,3 C 18,9 C 65 % 1014,9 hPa 0,0 l/m 2 min 0 min 816 W/m 6,4 km/h (2 Bft) 95,74 %
30.06.2023 11:24 20,7 C 23,3 C 18,9 C 65 % 1014,8 hPa 0,0 l/m 2 min 0 min 816 W/m 12,9 km/h (3 Bft) 97,87 %
30.06.2023 11:26 20,7 C 22,2 C 18,3 C 63 % 1014,8 hPa 0,0 l/m 2 min 0 min 836 W/m 6,4 km/h (2 Bft) 95,74 %
30.06.2023 11:28 20,7 C 22,8 C 18,3 C 64 % 1014,8 hPa 0,0 l/m 2 min 0 min 861 W/m 12,9 km/h (3 Bft) 95,74 %
30.06.2023 11:30 20,7 C 22,8 C 18,9 C 63 % 1014,7 hPa 0,0 l/m 2 min 0 min 909 W/m 12,9 km/h (3 Bft) 97,87 %
30.06.2023 11:32 20,8 C 22,8 C 19,4 C 63 % 1014,8 hPa 0,0 l/m 2 min 0 min 910 W/m 6,4 km/h (2 Bft) 97,83 %
30.06.2023 11:34 20,8 C 23,3 C 20,0 C 64 % 1014,7 hPa 0,0 l/m 2 min 0 min 900 W/m 6,4 km/h (2 Bft) 97,87 %
30.06.2023 11:36 20,8 C 23,9 C 20,0 C 63 % 1014,7 hPa 0,0 l/m 2 min 0 min 924 W/m 9,7 km/h (2 Bft) 97,87 %
30.06.2023 11:38 20,9 C 23,3 C 19,4 C 63 % 1014,7 hPa 0,0 l/m 2 min 0 min 942 W/m 16,1 km/h (3 Bft) 97,87 %
30.06.2023 11:40 20,9 C 23,3 C 18,9 C 64 % 1014,7 hPa 0,0 l/m 2 min 0 min 901 W/m 9,7 km/h (2 Bft) 97,87 %
30.06.2023 11:42 20,9 C 23,9 C 19,4 C 63 % 1014,7 hPa 0,0 l/m 2 min 0 min 893 W/m 16,1 km/h (3 Bft) 97,87 %
30.06.2023 11:44 20,9 C 24,4 C 20,0 C 64 % 1014,8 hPa 0,0 l/m 2 min 0 min 851 W/m 12,9 km/h (3 Bft) 97,87 %
30.06.2023 11:46 21,0 C 24,4 C 21,1 C 63 % 1014,7 hPa 0,0 l/m 2 min 0 min 837 W/m 12,9 km/h (3 Bft) 100,00 %
30.06.2023 11:48 21,1 C 23,9 C 21,1 C 62 % 1014,7 hPa 0,0 l/m 2 min 0 min 828 W/m 6,4 km/h (2 Bft) 100,00 %
30.06.2023 11:50 21,1 C 23,3 C 20,6 C 63 % 1014,7 hPa 0,0 l/m 2 min 0 min 831 W/m 12,9 km/h (3 Bft) 100,00 %
30.06.2023 11:52 20,9 C 23,3 C 20,6 C 60 % 1014,7 hPa 0,0 l/m 2 min 0 min 869 W/m 12,9 km/h (3 Bft) 97,87 %
30.06.2023 11:54 21,0 C 23,9 C 21,1 C 61 % 1014,7 hPa 0,0 l/m 2 min 0 min 914 W/m 9,7 km/h (2 Bft) 100,00 %
30.06.2023 11:56 21,1 C 23,9 C 20,6 C 61 % 1014,7 hPa 0,0 l/m 2 min 0 min 501 W/m 9,7 km/h (2 Bft) 95,74 %
30.06.2023 11:58 21,1 C 23,9 C 20,6 C 60 % 1014,6 hPa 0,0 l/m 2 min 0 min 725 W/m 19,3 km/h (3 Bft) 97,83 %
30.06.2023 12:00 21,1 C 23,9 C 20,6 C 61 % 1014,6 hPa 0,0 l/m 2 min 0 min 830 W/m 19,3 km/h (3 Bft) 100,00 %
30.06.2023 12:02 21,1 C 24,4 C 21,7 C 61 % 1014,6 hPa 0,0 l/m 2 min 0 min 933 W/m 9,7 km/h (2 Bft) 100,00 %
30.06.2023 12:04 21,1 C 25,0 C 22,2 C 62 % 1014,6 hPa 0,0 l/m 2 min 0 min 989 W/m 12,9 km/h (3 Bft) 100,00 %
30.06.2023 12:08 21,2 C 24,4 C 22,2 C 62 % 1014,6 hPa 0,0 l/m 4 min 0 min 997 W/m 9,7 km/h (2 Bft) 97,89 %
30.06.2023 12:10 21,2 C 23,9 C 21,7 C 61 % 1014,6 hPa 0,0 l/m 2 min 0 min 984 W/m 16,1 km/h (3 Bft) 100,00 %
30.06.2023 12:12 21,2 C 22,8 C 20,6 C 61 % 1014,6 hPa 0,0 l/m 2 min 0 min 655 W/m 6,4 km/h (2 Bft) 100,00 %
30.06.2023 12:14 21,2 C 22,8 C 19,4 C 60 % 1014,7 hPa 0,0 l/m 0 min 0 min 265 W/m 16,1 km/h (3 Bft) 95,74 %
30.06.2023 12:16 21,2 C 23,3 C 20,6 C 59 % 1014,6 hPa 0,0 l/m 0 min 0 min 271 W/m 6,4 km/h (2 Bft) 97,87 %
30.06.2023 12:18 21,2 C 23,9 C 20,6 C 60 % 1014,6 hPa 0,0 l/m 2 min 0 min 622 W/m 9,7 km/h (2 Bft) 100,00 %
30.06.2023 12:20 21,2 C 23,9 C 21,7 C 60 % 1014,6 hPa 0,0 l/m 2 min 0 min 729 W/m 6,4 km/h (2 Bft) 100,00 %
30.06.2023 12:22 21,3 C 23,9 C 21,7 C 60 % 1014,6 hPa 0,0 l/m 2 min 0 min 762 W/m 12,9 km/h (3 Bft) 100,00 %
30.06.2023 12:24 21,3 C 23,9 C 21,7 C 60 % 1014,6 hPa 0,0 l/m 2 min 0 min 654 W/m 16,1 km/h (3 Bft) 97,83 %
30.06.2023 12:26 21,3 C 23,9 C 21,7 C 60 % 1014,5 hPa 0,0 l/m 2 min 0 min 786 W/m 6,4 km/h (2 Bft) 100,00 %
30.06.2023 12:28 21,4 C 24,4 C 22,2 C 61 % 1014,5 hPa 0,0 l/m 2 min 0 min 846 W/m 6,4 km/h (2 Bft) 97,87 %
30.06.2023 12:30 21,4 C 24,4 C 22,2 C 59 % 1014,5 hPa 0,0 l/m 2 min 0 min 894 W/m 16,1 km/h (3 Bft) 95,74 %
30.06.2023 12:32 21,4 C 24,4 C 22,8 C 59 % 1014,5 hPa 0,0 l/m 2 min 0 min 958 W/m 16,1 km/h (3 Bft) 97,87 %
30.06.2023 12:34 21,6 C 25,0 C 22,8 C 61 % 1014,5 hPa 0,0 l/m 2 min 0 min 866 W/m 12,9 km/h (3 Bft) 97,87 %
30.06.2023 12:36 21,7 C 24,4 C 22,8 C 60 % 1014,5 hPa 0,0 l/m 2 min 0 min 722 W/m 12,9 km/h (3 Bft) 97,83 %
30.06.2023 12:38 21,8 C 23,9 C 21,7 C 60 % 1014,5 hPa 0,0 l/m 2 min 0 min 632 W/m 6,4 km/h (2 Bft) 97,87 %
30.06.2023 12:40 21,8 C 23,9 C 21,7 C 60 % 1014,5 hPa 0,0 l/m 2 min 0 min 511 W/m 9,7 km/h (2 Bft) 95,74 %
30.06.2023 12:42 21,9 C 25,0 C 21,7 C 60 % 1014,5 hPa 0,0 l/m 2 min 0 min 667 W/m 9,7 km/h (2 Bft) 95,74 %
30.06.2023 12:44 21,9 C 25,0 C 22,8 C 60 % 1014,5 hPa 0,0 l/m 2 min 0 min 831 W/m 6,4 km/h (2 Bft) 97,87 %
30.06.2023 12:46 22,1 C 23,9 C 21,7 C 60 % 1014,5 hPa 0,0 l/m 2 min 0 min 626 W/m 12,9 km/h (3 Bft) 97,87 %
30.06.2023 12:48 22,1 C 23,9 C 20,6 C 59 % 1014,4 hPa 0,0 l/m 2 min 0 min 451 W/m 12,9 km/h (3 Bft) 97,87 %
30.06.2023 12:50 22,1 C 25,6 C 21,7 C 59 % 1014,4 hPa 0,0 l/m 2 min 0 min 970 W/m 12,9 km/h (3 Bft) 97,83 %
30.06.2023 12:52 22,2 C 26,7 C 21,7 C 60 % 1014,4 hPa 0,0 l/m 2 min 0 min 983 W/m 12,9 km/h (3 Bft) 95,74 %
30.06.2023 12:54 22,3 C 25,6 C 22,2 C 60 % 1014,4 hPa 0,0 l/m 2 min 0 min 795 W/m 6,4 km/h (2 Bft) 97,87 %
30.06.2023 12:56 22,2 C 23,9 C 21,1 C 61 % 1014,4 hPa 0,0 l/m 2 min 0 min 473 W/m 6,4 km/h (2 Bft) 95,74 %
30.06.2023 12:58 22,2 C 23,3 C 20,0 C 60 % 1014,4 hPa 0,0 l/m 0 min 0 min 370 W/m 12,9 km/h (3 Bft) 97,87 %
30.06.2023 13:00 22,1 C 22,8 C 20,0 C 59 % 1014,3 hPa 0,0 l/m 0 min 0 min 439 W/m 6,4 km/h (2 Bft) 93,62 %
30.06.2023 13:02 22,1 C 22,8 C 19,4 C 59 % 1014,4 hPa 0,0 l/m 0 min 0 min 300 W/m 9,7 km/h (2 Bft) 93,62 %
30.06.2023 13:04 22,0 C 22,2 C 18,9 C 60 % 1014,4 hPa 0,0 l/m 0 min 0 min 242 W/m 3,2 km/h (1 Bft) 93,75 %
30.06.2023 13:06 21,8 C 21,7 C 18,3 C 60 % 1014,3 hPa 0,0 l/m 0 min 0 min 225 W/m 12,9 km/h (3 Bft) 91,49 %
30.06.2023 13:08 21,7 C 21,7 C 18,3 C 61 % 1014,3 hPa 0,0 l/m 0 min 0 min 219 W/m 16,1 km/h (3 Bft) 95,74 %
30.06.2023 13:10 21,6 C 21,1 C 17,8 C 61 % 1014,3 hPa 0,0 l/m 0 min 0 min 218 W/m 16,1 km/h (3 Bft) 93,62 %
30.06.2023 13:12 21,5 C 21,1 C 17,8 C 61 % 1014,3 hPa 0,0 l/m 0 min 0 min 270 W/m 16,1 km/h (3 Bft) 95,74 %
30.06.2023 13:14 21,4 C 23,3 C 18,9 C 61 % 1014,2 hPa 0,0 l/m 0 min 0 min 281 W/m 12,9 km/h (3 Bft) 93,62 %
30.06.2023 13:16 21,4 C 23,3 C 19,4 C 60 % 1014,2 hPa 0,0 l/m 2 min 0 min 985 W/m 12,9 km/h (3 Bft) 91,30 %
30.06.2023 13:18 21,4 C 23,3 C 19,4 C 60 % 1014,2 hPa 0,0 l/m 2 min 0 min 467 W/m 12,9 km/h (3 Bft) 91,49 %
30.06.2023 13:20 21,5 C 22,8 C 19,4 C 60 % 1014,2 hPa 0,0 l/m 2 min 0 min 485 W/m 6,4 km/h (2 Bft) 91,49 %
30.06.2023 13:22 21,6 C 25,0 C 20,0 C 62 % 1014,2 hPa 0,0 l/m 2 min 0 min 826 W/m 12,9 km/h (3 Bft) 91,49 %
30.06.2023 13:24 21,6 C 25,6 C 20,6 C 61 % 1014,2 hPa 0,0 l/m 2 min 0 min 1197 W/m 12,9 km/h (3 Bft) 91,49 %
30.06.2023 13:26 21,7 C 25,0 C 20,6 C 61 % 1014,2 hPa 0,0 l/m 2 min 0 min 1197 W/m 16,1 km/h (3 Bft) 95,74 %
30.06.2023 13:28 21,8 C 23,9 C 20,0 C 61 % 1014,1 hPa 0,0 l/m 2 min 0 min 765 W/m 22,5 km/h (4 Bft) 93,48 %
30.06.2023 13:30 21,8 C 22,8 C 19,4 C 60 % 1014,2 hPa 0,0 l/m 0 min 0 min 302 W/m 16,1 km/h (3 Bft) 93,62 %
30.06.2023 13:32 21,7 C 23,3 C 20,0 C 60 % 1014,1 hPa 0,0 l/m 0 min 0 min 383 W/m 16,1 km/h (3 Bft) 95,74 %
30.06.2023 13:34 21,6 C 22,8 C 19,4 C 60 % 1014,1 hPa 0,0 l/m 0 min 0 min 385 W/m 12,9 km/h (3 Bft) 93,62 %
30.06.2023 13:36 21,6 C 22,2 C 18,9 C 60 % 1014,1 hPa 0,0 l/m 0 min 0 min 379 W/m 6,4 km/h (2 Bft) 95,74 %
30.06.2023 13:38 21,6 C 23,9 C 20,0 C 60 % 1014,1 hPa 0,0 l/m 2 min 0 min 626 W/m 12,9 km/h (3 Bft) 95,74 %
30.06.2023 13:40 21,6 C 23,9 C 20,6 C 61 % 1014,0 hPa 0,0 l/m 2 min 0 min 959 W/m 9,7 km/h (2 Bft) 95,74 %
30.06.2023 13:42 21,6 C 23,3 C 20,6 C 61 % 1014,1 hPa 0,0 l/m 0 min 0 min 334 W/m 6,4 km/h (2 Bft) 95,65 %
30.06.2023 13:44 21,6 C 22,2 C 20,0 C 60 % 1014,1 hPa 0,0 l/m 0 min 0 min 366 W/m 9,7 km/h (2 Bft) 100,00 %
30.06.2023 13:46 21,6 C 24,4 C 21,1 C 60 % 1014,1 hPa 0,0 l/m 0 min 0 min 426 W/m 6,4 km/h (2 Bft) 97,87 %
30.06.2023 13:48 21,7 C 26,1 C 22,2 C 61 % 1014,2 hPa 0,0 l/m 2 min 0 min 1067 W/m 9,7 km/h (2 Bft) 100,00 %
30.06.2023 13:50 21,8 C 25,6 C 22,2 C 60 % 1014,1 hPa 0,0 l/m 2 min 0 min 1041 W/m 16,1 km/h (3 Bft) 100,00 %
30.06.2023 13:52 21,8 C 23,9 C 21,1 C 60 % 1014,1 hPa 0,0 l/m 0 min 0 min 366 W/m 9,7 km/h (2 Bft) 100,00 %
30.06.2023 13:54 21,8 C 23,3 C 20,6 C 59 % 1014,2 hPa 0,0 l/m 0 min 0 min 290 W/m 9,7 km/h (2 Bft) 97,87 %
30.06.2023 13:56 21,7 C 22,8 C 19,4 C 58 % 1014,2 hPa 0,0 l/m 0 min 0 min 278 W/m 16,1 km/h (3 Bft) 97,83 %
30.06.2023 13:58 21,8 C 25,0 C 20,6 C 59 % 1014,1 hPa 0,0 l/m 2 min 0 min 712 W/m 9,7 km/h (2 Bft) 100,00 %
30.06.2023 14:00 21,8 C 26,1 C 21,1 C 60 % 1014,2 hPa 0,0 l/m 2 min 0 min 1074 W/m 12,9 km/h (3 Bft) 100,00 %
30.06.2023 14:02 21,9 C 25,6 C 21,1 C 60 % 1014,2 hPa 0,0 l/m 2 min 0 min 825 W/m 9,7 km/h (2 Bft) 100,00 %
30.06.2023 14:04 21,9 C 25,0 C 21,1 C 60 % 1014,2 hPa 0,0 l/m 2 min 0 min 795 W/m 6,4 km/h (2 Bft) 97,96 %
30.06.2023 14:06 22,0 C 25,6 C 20,6 C 59 % 1014,2 hPa 0,0 l/m 2 min 0 min 637 W/m 12,9 km/h (3 Bft) 100,00 %
30.06.2023 14:08 22,1 C 26,1 C 20,6 C 59 % 1014,2 hPa 0,0 l/m 2 min 0 min 462 W/m 9,7 km/h (2 Bft) 100,00 %
30.06.2023 14:10 22,2 C 27,2 C 20,0 C 59 % 1014,2 hPa 0,0 l/m 2 min 0 min 462 W/m 12,9 km/h (3 Bft) 100,00 %
30.06.2023 14:12 22,1 C 26,1 C 20,0 C 57 % 1014,2 hPa 0,0 l/m 2 min 0 min 849 W/m 16,1 km/h (3 Bft) 97,87 %
30.06.2023 14:14 22,2 C 26,1 C 20,0 C 59 % 1014,1 hPa 0,0 l/m 2 min 0 min 974 W/m 12,9 km/h (3 Bft) 100,00 %
30.06.2023 14:16 22,3 C 26,7 C 19,4 C 59 % 1014,1 hPa 0,0 l/m 0 min 0 min 446 W/m 22,5 km/h (4 Bft) 100,00 %
30.06.2023 14:18 22,2 C 26,1 C 19,4 C 58 % 1014,1 hPa 0,0 l/m 2 min 0 min 1087 W/m 19,3 km/h (3 Bft) 100,00 %
30.06.2023 14:20 22,3 C 27,2 C 19,4 C 58 % 1014,0 hPa 0,0 l/m 2 min 0 min 1078 W/m 9,7 km/h (2 Bft) 97,83 %
30.06.2023 14:22 22,5 C 26,1 C 19,4 C 58 % 1014,1 hPa 0,0 l/m 2 min 0 min 1056 W/m 9,7 km/h (2 Bft) 100,00 %
30.06.2023 14:24 22,4 C 26,1 C 18,9 C 58 % 1014,0 hPa 0,0 l/m 2 min 0 min 1056 W/m 19,3 km/h (3 Bft) 100,00 %
30.06.2023 14:26 22,5 C 25,6 C 18,9 C 59 % 1014,0 hPa 0,0 l/m 2 min 0 min 1038 W/m 12,9 km/h (3 Bft) 100,00 %
30.06.2023 14:28 22,4 C 23,9 C 18,9 C 57 % 1014,0 hPa 0,0 l/m 0 min 0 min 249 W/m 19,3 km/h (3 Bft) 97,87 %
30.06.2023 14:30 22,1 C 23,9 C 18,3 C 58 % 1014,0 hPa 0,0 l/m 0 min 0 min 238 W/m 16,1 km/h (3 Bft) 100,00 %
30.06.2023 14:32 22,1 C 25,6 C 18,3 C 58 % 1014,0 hPa 0,0 l/m 2 min 0 min 886 W/m 6,4 km/h (2 Bft) 100,00 %
30.06.2023 14:34 22,1 C 26,7 C 18,9 C 57 % 1013,9 hPa 0,0 l/m 2 min 0 min 974 W/m 6,4 km/h (2 Bft) 100,00 %
30.06.2023 14:36 22,3 C 27,8 C 18,9 C 57 % 1013,9 hPa 0,0 l/m 2 min 0 min 962 W/m 12,9 km/h (3 Bft) 97,87 %
30.06.2023 14:38 22,6 C 28,9 C 18,9 C 58 % 1013,8 hPa 0,0 l/m 2 min 0 min 963 W/m 12,9 km/h (3 Bft) 100,00 %
30.06.2023 14:40 22,8 C 28,9 C 19,4 C 58 % 1013,8 hPa 0,0 l/m 2 min 0 min 984 W/m 12,9 km/h (3 Bft) 100,00 %
30.06.2023 14:42 23,1 C 27,8 C 19,4 C 57 % 1013,9 hPa 0,0 l/m 2 min 0 min 996 W/m 16,1 km/h (3 Bft) 100,00 %
30.06.2023 14:46 23,3 C 27,2 C 19,4 C 55 % 1013,9 hPa 0,0 l/m 4 min 0 min 903 W/m 12,9 km/h (3 Bft) 100,00 %
30.06.2023 14:48 23,4 C 26,1 C 19,4 C 55 % 1013,8 hPa 0,0 l/m 0 min 0 min 316 W/m 12,9 km/h (3 Bft) 100,00 %
30.06.2023 14:50 23,3 C 25,6 C 19,4 C 55 % 1013,8 hPa 0,0 l/m 0 min 0 min 323 W/m 9,7 km/h (2 Bft) 100,00 %
30.06.2023 14:52 23,3 C 26,7 C 19,4 C 55 % 1013,7 hPa 0,0 l/m 0 min 0 min 330 W/m 6,4 km/h (2 Bft) 100,00 %
30.06.2023 14:54 23,3 C 26,1 C 19,4 C 56 % 1013,7 hPa 0,0 l/m 0 min 0 min 388 W/m 12,9 km/h (3 Bft) 100,00 %
30.06.2023 14:56 23,4 C 27,2 C 19,4 C 56 % 1013,7 hPa 0,0 l/m 2 min 0 min 494 W/m 9,7 km/h (2 Bft) 100,00 %
30.06.2023 14:58 23,4 C 27,8 C 19,4 C 55 % 1013,6 hPa 0,0 l/m 2 min 0 min 726 W/m 6,4 km/h (2 Bft) 95,74 %
30.06.2023 15:00 23,4 C 28,3 C 19,4 C 54 % 1013,7 hPa 0,0 l/m 2 min 0 min 881 W/m 6,4 km/h (2 Bft) 100,00 %
30.06.2023 15:02 23,6 C 28,9 C 19,4 C 55 % 1013,7 hPa 0,0 l/m 2 min 0 min 891 W/m 12,9 km/h (3 Bft) 100,00 %
30.06.2023 15:04 23,7 C 28,3 C 19,4 C 55 % 1013,7 hPa 0,0 l/m 2 min 0 min 838 W/m 12,9 km/h (3 Bft) 100,00 %
30.06.2023 15:06 23,7 C 26,7 C 19,4 C 55 % 1013,6 hPa 0,0 l/m 2 min 0 min 822 W/m 12,9 km/h (3 Bft) 100,00 %
30.06.2023 15:08 23,7 C 25,6 C 19,4 C 55 % 1013,6 hPa 0,0 l/m 0 min 0 min 270 W/m 12,9 km/h (3 Bft) 97,14 %
30.06.2023 15:10 23,6 C 25,0 C 19,4 C 55 % 1013,6 hPa 0,0 l/m 0 min 0 min 265 W/m 6,4 km/h (2 Bft) 97,87 %
30.06.2023 15:12 23,7 C 26,7 C 19,4 C 57 % 1013,6 hPa 0,0 l/m 2 min 0 min 500 W/m 6,4 km/h (2 Bft) 97,87 %
30.06.2023 15:14 23,7 C 27,2 C 19,4 C 56 % 1013,6 hPa 0,0 l/m 2 min 0 min 869 W/m 16,1 km/h (3 Bft) 95,65 %
30.06.2023 15:16 23,6 C 27,2 C 19,4 C 55 % 1013,6 hPa 0,0 l/m 2 min 0 min 824 W/m 12,9 km/h (3 Bft) 97,87 %
30.06.2023 15:18 23,6 C 27,8 C 19,4 C 55 % 1013,5 hPa 0,0 l/m 2 min 0 min 850 W/m 12,9 km/h (3 Bft) 97,87 %
30.06.2023 15:20 23,6 C 26,7 C 19,4 C 55 % 1013,5 hPa 0,0 l/m 2 min 0 min 849 W/m 12,9 km/h (3 Bft) 97,87 %
30.06.2023 15:22 23,6 C 27,2 C 19,4 C 54 % 1013,6 hPa 0,0 l/m 2 min 0 min 786 W/m 6,4 km/h (2 Bft) 97,87 %
30.06.2023 15:24 23,7 C 27,2 C 19,4 C 56 % 1013,5 hPa 0,0 l/m 2 min 0 min 795 W/m 12,9 km/h (3 Bft) 97,87 %
30.06.2023 15:26 23,7 C 26,7 C 19,4 C 55 % 1013,5 hPa 0,0 l/m 2 min 0 min 711 W/m 12,9 km/h (3 Bft) 97,87 %
30.06.2023 15:28 23,7 C 26,7 C 20,0 C 55 % 1013,5 hPa 0,0 l/m 2 min 0 min 447 W/m 12,9 km/h (3 Bft) 95,65 %
30.06.2023 15:30 23,7 C 27,2 C 20,0 C 55 % 1013,5 hPa 0,0 l/m 2 min 0 min 754 W/m 9,7 km/h (2 Bft) 97,87 %
30.06.2023 15:32 23,7 C 27,2 C 19,4 C 54 % 1013,5 hPa 0,0 l/m 2 min 0 min 780 W/m 3,2 km/h (1 Bft) 97,87 %
30.06.2023 15:34 23,8 C 26,1 C 19,4 C 53 % 1013,4 hPa 0,0 l/m 2 min 0 min 738 W/m 6,4 km/h (2 Bft) 95,74 %
30.06.2023 15:36 23,8 C 26,7 C 19,4 C 56 % 1013,4 hPa 0,0 l/m 2 min 0 min 728 W/m 6,4 km/h (2 Bft) 95,74 %
30.06.2023 15:38 23,9 C 27,2 C 19,4 C 55 % 1013,3 hPa 0,0 l/m 2 min 0 min 731 W/m 6,4 km/h (2 Bft) 95,74 %
30.06.2023 15:40 24,1 C 27,8 C 19,4 C 54 % 1013,4 hPa 0,0 l/m 2 min 0 min 733 W/m 6,4 km/h (2 Bft) 87,23 %
30.06.2023 15:42 24,1 C 27,8 C 19,4 C 53 % 1013,4 hPa 0,0 l/m 2 min 0 min 795 W/m 6,4 km/h (2 Bft) 97,83 %
30.06.2023 15:44 24,2 C 27,8 C 20,0 C 54 % 1013,3 hPa 0,0 l/m 2 min 0 min 821 W/m 12,9 km/h (3 Bft) 97,87 %
30.06.2023 15:46 24,2 C 27,8 C 20,0 C 53 % 1013,3 hPa 0,0 l/m 2 min 0 min 747 W/m 16,1 km/h (3 Bft) 97,87 %
30.06.2023 15:48 24,3 C 27,2 C 20,0 C 53 % 1013,3 hPa 0,0 l/m 2 min 0 min 676 W/m 6,4 km/h (2 Bft) 95,74 %
30.06.2023 15:50 24,4 C 27,2 C 20,0 C 54 % 1013,2 hPa 0,0 l/m 2 min 0 min 747 W/m 9,7 km/h (2 Bft) 97,87 %
30.06.2023 15:52 24,4 C 27,8 C 20,0 C 52 % 1013,2 hPa 0,0 l/m 2 min 0 min 720 W/m 9,7 km/h (2 Bft) 97,87 %
30.06.2023 15:54 24,5 C 27,8 C 20,0 C 53 % 1013,2 hPa 0,0 l/m 2 min 0 min 719 W/m 12,9 km/h (3 Bft) 97,83 %
30.06.2023 15:56 24,4 C 27,2 C 20,0 C 52 % 1013,2 hPa 0,0 l/m 2 min 0 min 751 W/m 12,9 km/h (3 Bft) 95,74 %
30.06.2023 15:58 24,3 C 27,2 C 20,0 C 52 % 1013,1 hPa 0,0 l/m 2 min 0 min 758 W/m 12,9 km/h (3 Bft) 95,74 %
30.06.2023 16:00 24,3 C 27,2 C 20,0 C 53 % 1013,1 hPa 0,0 l/m 2 min 0 min 741 W/m 19,3 km/h (3 Bft) 97,87 %
30.06.2023 16:02 24,3 C 27,8 C 20,0 C 54 % 1013,1 hPa 0,0 l/m 2 min 0 min 747 W/m 9,7 km/h (2 Bft) 95,74 %
30.06.2023 16:04 24,4 C 27,2 C 20,0 C 53 % 1013,1 hPa 0,0 l/m 2 min 0 min 713 W/m 9,7 km/h (2 Bft) 95,92 %
30.06.2023 16:06 24,4 C 27,2 C 20,0 C 53 % 1013,1 hPa 0,0 l/m 2 min 0 min 647 W/m 12,9 km/h (3 Bft) 93,10 %
30.06.2023 16:08 24,3 C 26,7 C 20,0 C 52 % 1013,0 hPa 0,0 l/m 2 min 0 min 570 W/m 6,4 km/h (2 Bft) 97,14 %
30.06.2023 16:10 24,3 C 26,1 C 19,4 C 51 % 1013,1 hPa 0,0 l/m 2 min 0 min 606 W/m 9,7 km/h (2 Bft) 93,62 %
30.06.2023 16:12 24,2 C 26,7 C 19,4 C 52 % 1013,0 hPa 0,0 l/m 2 min 0 min 654 W/m 6,4 km/h (2 Bft) 93,62 %
30.06.2023 16:14 24,3 C 27,2 C 19,4 C 54 % 1013,0 hPa 0,0 l/m 2 min 0 min 681 W/m 6,4 km/h (2 Bft) 97,87 %
30.06.2023 16:16 24,3 C 27,2 C 20,0 C 53 % 1013,0 hPa 0,0 l/m 2 min 0 min 696 W/m 9,7 km/h (2 Bft) 97,87 %
30.06.2023 16:18 24,3 C 26,7 C 20,0 C 53 % 1012,9 hPa 0,0 l/m 2 min 0 min 613 W/m 12,9 km/h (3 Bft) 97,87 %
30.06.2023 16:20 24,3 C 26,1 C 19,4 C 53 % 1012,9 hPa 0,0 l/m 2 min 0 min 575 W/m 9,7 km/h (2 Bft) 97,87 %
30.06.2023 16:22 24,2 C 26,7 C 19,4 C 54 % 1012,8 hPa 0,0 l/m 2 min 0 min 709 W/m 6,4 km/h (2 Bft) 97,83 %
30.06.2023 16:24 24,2 C 27,2 C 20,0 C 52 % 1012,9 hPa 0,0 l/m 2 min 0 min 725 W/m 6,4 km/h (2 Bft) 97,87 %
30.06.2023 16:26 24,3 C 27,2 C 20,0 C 52 % 1012,9 hPa 0,0 l/m 2 min 0 min 653 W/m 6,4 km/h (2 Bft) 97,87 %
30.06.2023 16:28 24,4 C 27,2 C 20,0 C 52 % 1012,8 hPa 0,0 l/m 2 min 0 min 648 W/m 12,9 km/h (3 Bft) 97,87 %
30.06.2023 16:30 24,4 C 27,8 C 20,0 C 51 % 1012,8 hPa 0,0 l/m 2 min 0 min 695 W/m 16,1 km/h (3 Bft) 97,87 %
30.06.2023 16:32 24,4 C 27,8 C 20,0 C 51 % 1012,8 hPa 0,0 l/m 2 min 0 min 742 W/m 12,9 km/h (3 Bft) 97,83 %
30.06.2023 16:34 24,4 C 27,8 C 20,0 C 51 % 1012,8 hPa 0,0 l/m 2 min 0 min 743 W/m 12,9 km/h (3 Bft) 95,74 %
30.06.2023 16:36 24,4 C 27,8 C 19,4 C 51 % 1012,7 hPa 0,0 l/m 2 min 0 min 741 W/m 9,7 km/h (2 Bft) 97,87 %
30.06.2023 16:38 24,4 C 27,8 C 20,0 C 52 % 1012,8 hPa 0,0 l/m 2 min 0 min 714 W/m 9,7 km/h (2 Bft) 97,87 %
30.06.2023 16:40 24,3 C 27,2 C 19,4 C 50 % 1012,8 hPa 0,0 l/m 2 min 0 min 675 W/m 6,4 km/h (2 Bft) 97,87 %
30.06.2023 16:42 24,3 C 27,2 C 20,0 C 53 % 1012,7 hPa 0,0 l/m 2 min 0 min 674 W/m 9,7 km/h (2 Bft) 95,74 %
30.06.2023 16:44 24,3 C 27,8 C 20,0 C 53 % 1012,8 hPa 0,0 l/m 2 min 0 min 675 W/m 6,4 km/h (2 Bft) 97,87 %
30.06.2023 16:46 24,4 C 27,8 C 20,0 C 53 % 1012,8 hPa 0,0 l/m 2 min 0 min 642 W/m 6,4 km/h (2 Bft) 97,83 %
30.06.2023 16:48 24,4 C 27,8 C 20,0 C 52 % 1012,8 hPa 0,0 l/m 2 min 0 min 625 W/m 6,4 km/h (2 Bft) 97,87 %
30.06.2023 16:50 24,3 C 27,8 C 20,0 C 53 % 1012,8 hPa 0,0 l/m 2 min 0 min 614 W/m 9,7 km/h (2 Bft) 97,87 %
30.06.2023 16:52 24,3 C 27,8 C 20,0 C 53 % 1012,7 hPa 0,0 l/m 2 min 0 min 632 W/m 12,9 km/h (3 Bft) 97,87 %
30.06.2023 16:54 24,4 C 27,8 C 20,0 C 54 % 1012,7 hPa 0,0 l/m 2 min 0 min 622 W/m 12,9 km/h (3 Bft) 100,00 %
30.06.2023 16:56 24,4 C 27,8 C 20,6 C 52 % 1012,7 hPa 0,0 l/m 2 min 0 min 580 W/m 12,9 km/h (3 Bft) 100,00 %
30.06.2023 16:58 24,5 C 27,2 C 20,0 C 52 % 1012,7 hPa 0,0 l/m 2 min 0 min 578 W/m 9,7 km/h (2 Bft) 100,00 %
30.06.2023 17:00 24,5 C 27,2 C 20,6 C 52 % 1012,7 hPa 0,0 l/m 2 min 0 min 600 W/m 9,7 km/h (2 Bft) 100,00 %
30.06.2023 17:02 24,4 C 27,8 C 20,0 C 53 % 1012,7 hPa 0,0 l/m 2 min 0 min 569 W/m 9,7 km/h (2 Bft) 100,00 %
30.06.2023 17:04 24,5 C 27,2 C 20,0 C 53 % 1012,7 hPa 0,0 l/m 2 min 0 min 605 W/m 9,7 km/h (2 Bft) 100,00 %
30.06.2023 17:06 24,4 C 26,1 C 20,0 C 51 % 1012,7 hPa 0,0 l/m 2 min 0 min 433 W/m 6,4 km/h (2 Bft) 100,00 %
30.06.2023 17:08 24,4 C 25,0 C 20,0 C 51 % 1012,7 hPa 0,0 l/m 0 min 0 min 274 W/m 3,2 km/h (1 Bft) 97,14 %
30.06.2023 17:10 24,3 C 25,0 C 19,4 C 52 % 1012,7 hPa 0,0 l/m 0 min 0 min 277 W/m 6,4 km/h (2 Bft) 97,87 %
30.06.2023 17:12 24,2 C 24,4 C 19,4 C 52 % 1012,7 hPa 0,0 l/m 0 min 0 min 321 W/m 9,7 km/h (2 Bft) 97,83 %
30.06.2023 17:14 24,2 C 23,9 C 19,4 C 53 % 1012,6 hPa 0,0 l/m 0 min 0 min 259 W/m 6,4 km/h (2 Bft) 97,87 %
30.06.2023 17:16 24,1 C 23,3 C 19,4 C 53 % 1012,6 hPa 0,0 l/m 0 min 0 min 212 W/m 6,4 km/h (2 Bft) 97,87 %
30.06.2023 17:18 23,9 C 23,3 C 19,4 C 53 % 1012,6 hPa 0,0 l/m 0 min 0 min 202 W/m 6,4 km/h (2 Bft) 97,87 %
30.06.2023 17:20 23,9 C 23,3 C 19,4 C 54 % 1012,6 hPa 0,0 l/m 0 min 0 min 201 W/m 6,4 km/h (2 Bft) 97,87 %
30.06.2023 17:22 23,8 C 23,3 C 18,9 C 54 % 1012,6 hPa 0,0 l/m 0 min 0 min 195 W/m 6,4 km/h (2 Bft) 97,87 %
30.06.2023 17:24 23,8 C 23,3 C 18,9 C 53 % 1012,5 hPa 0,0 l/m 0 min 0 min 190 W/m 6,4 km/h (2 Bft) 95,74 %
30.06.2023 17:26 23,8 C 23,3 C 18,9 C 53 % 1012,5 hPa 0,0 l/m 0 min 0 min 199 W/m 6,4 km/h (2 Bft) 97,83 %
30.06.2023 17:28 23,7 C 23,3 C 18,9 C 54 % 1012,5 hPa 0,0 l/m 0 min 0 min 231 W/m 6,4 km/h (2 Bft) 95,74 %
30.06.2023 17:30 23,7 C 23,3 C 18,9 C 55 % 1012,5 hPa 0,0 l/m 0 min 0 min 269 W/m 3,2 km/h (1 Bft) 97,87 %
30.06.2023 17:32 23,6 C 23,9 C 18,9 C 54 % 1012,4 hPa 0,0 l/m 2 min 0 min 316 W/m 9,7 km/h (2 Bft) 97,87 %
30.06.2023 17:34 23,6 C 23,9 C 18,9 C 54 % 1012,4 hPa 0,0 l/m 2 min 0 min 343 W/m 6,4 km/h (2 Bft) 97,87 %
30.06.2023 17:36 23,6 C 23,9 C 18,9 C 54 % 1012,4 hPa 0,0 l/m 2 min 0 min 369 W/m 3,2 km/h (1 Bft) 93,62 %
30.06.2023 17:38 23,6 C 23,9 C 18,9 C 53 % 1012,4 hPa 0,0 l/m 0 min 0 min 297 W/m 3,2 km/h (1 Bft) 97,83 %
30.06.2023 17:40 23,6 C 25,0 C 18,9 C 54 % 1012,4 hPa 0,0 l/m 2 min 0 min 434 W/m 6,4 km/h (2 Bft) 97,87 %
30.06.2023 17:42 23,6 C 26,1 C 19,4 C 53 % 1012,4 hPa 0,0 l/m 2 min 0 min 558 W/m 6,4 km/h (2 Bft) 97,87 %
30.06.2023 17:44 23,6 C 26,7 C 19,4 C 55 % 1012,3 hPa 0,0 l/m 2 min 0 min 569 W/m 12,9 km/h (3 Bft) 97,87 %
30.06.2023 17:46 23,6 C 26,7 C 20,0 C 55 % 1012,3 hPa 0,0 l/m 2 min 0 min 577 W/m 12,9 km/h (3 Bft) 100,00 %
30.06.2023 17:48 23,7 C 27,2 C 20,0 C 54 % 1012,2 hPa 0,0 l/m 2 min 0 min 560 W/m 3,2 km/h (1 Bft) 100,00 %
30.06.2023 17:50 23,8 C 27,2 C 20,0 C 55 % 1012,3 hPa 0,0 l/m 2 min 0 min 540 W/m 9,7 km/h (2 Bft) 97,87 %
30.06.2023 17:52 23,8 C 26,1 C 20,0 C 53 % 1012,3 hPa 0,0 l/m 2 min 0 min 403 W/m 12,9 km/h (3 Bft) 100,00 %
30.06.2023 17:54 23,8 C 25,0 C 20,0 C 52 % 1012,3 hPa 0,0 l/m 0 min 0 min 219 W/m 6,4 km/h (2 Bft) 95,65 %
30.06.2023 17:56 23,8 C 24,4 C 19,4 C 52 % 1012,3 hPa 0,0 l/m 0 min 0 min 204 W/m 9,7 km/h (2 Bft) 100,00 %
30.06.2023 17:58 23,7 C 23,9 C 19,4 C 53 % 1012,3 hPa 0,0 l/m 0 min 0 min 202 W/m 19,3 km/h (3 Bft) 100,00 %
30.06.2023 18:00 23,7 C 23,9 C 19,4 C 53 % 1012,3 hPa 0,0 l/m 0 min 0 min 228 W/m 6,4 km/h (2 Bft) 100,00 %
30.06.2023 18:02 23,7 C 23,3 C 19,4 C 54 % 1012,3 hPa 0,0 l/m 0 min 0 min 251 W/m 6,4 km/h (2 Bft) 100,00 %
30.06.2023 18:04 23,6 C 23,9 C 19,4 C 54 % 1012,2 hPa 0,0 l/m 2 min 0 min 282 W/m 12,9 km/h (3 Bft) 100,00 %
30.06.2023 18:08 23,4 C 25,0 C 19,4 C 53 % 1012,2 hPa 0,0 l/m 4 min 0 min 333 W/m 16,1 km/h (3 Bft) 98,94 %
30.06.2023 18:10 23,4 C 24,4 C 19,4 C 54 % 1012,2 hPa 0,0 l/m 2 min 0 min 447 W/m 6,4 km/h (2 Bft) 97,87 %
30.06.2023 18:12 23,4 C 23,9 C 19,4 C 54 % 1012,1 hPa 0,0 l/m 0 min 0 min 215 W/m 6,4 km/h (2 Bft) 93,62 %
30.06.2023 18:14 23,4 C 23,9 C 19,4 C 54 % 1012,1 hPa 0,0 l/m 0 min 0 min 201 W/m 16,1 km/h (3 Bft) 97,87 %
30.06.2023 18:16 23,4 C 23,3 C 19,4 C 55 % 1012,1 hPa 0,0 l/m 0 min 0 min 181 W/m 3,2 km/h (1 Bft) 97,87 %
30.06.2023 18:18 23,3 C 23,3 C 19,4 C 54 % 1012,1 hPa 0,0 l/m 0 min 0 min 167 W/m 12,9 km/h (3 Bft) 97,83 %
30.06.2023 18:20 23,2 C 22,8 C 19,4 C 54 % 1012,0 hPa 0,0 l/m 0 min 0 min 154 W/m 6,4 km/h (2 Bft) 97,87 %
30.06.2023 18:22 23,1 C 22,8 C 18,9 C 54 % 1012,1 hPa 0,0 l/m 0 min 0 min 142 W/m 12,9 km/h (3 Bft) 97,87 %
30.06.2023 18:24 23,1 C 22,8 C 18,9 C 56 % 1012,0 hPa 0,0 l/m 0 min 0 min 137 W/m 6,4 km/h (2 Bft) 97,87 %
30.06.2023 18:26 23,1 C 22,2 C 18,9 C 55 % 1012,0 hPa 0,0 l/m 0 min 0 min 130 W/m 12,9 km/h (3 Bft) 97,87 %
30.06.2023 18:28 23,0 C 22,2 C 18,9 C 55 % 1012,0 hPa 0,0 l/m 0 min 0 min 117 W/m 9,7 km/h (2 Bft) 93,62 %
30.06.2023 18:30 22,9 C 22,2 C 18,9 C 56 % 1012,0 hPa 0,0 l/m 0 min 0 min 103 W/m 6,4 km/h (2 Bft) 97,87 %
30.06.2023 18:32 22,9 C 22,2 C 18,9 C 56 % 1012,0 hPa 0,0 l/m 0 min 0 min 94 W/m 12,9 km/h (3 Bft) 97,83 %
30.06.2023 18:34 22,8 C 22,2 C 18,9 C 56 % 1012,1 hPa 0,0 l/m 0 min 0 min 86 W/m 12,9 km/h (3 Bft) 95,74 %
30.06.2023 18:36 22,7 C 22,2 C 18,9 C 56 % 1012,0 hPa 0,0 l/m 0 min 0 min 82 W/m 6,4 km/h (2 Bft) 97,87 %
30.06.2023 18:38 22,7 C 22,2 C 18,3 C 56 % 1011,9 hPa 0,0 l/m 0 min 0 min 82 W/m 6,4 km/h (2 Bft) 97,87 %
30.06.2023 18:40 22,6 C 22,2 C 18,3 C 56 % 1011,9 hPa 0,0 l/m 0 min 0 min 91 W/m 6,4 km/h (2 Bft) 97,87 %
30.06.2023 18:42 22,6 C 21,7 C 18,3 C 58 % 1011,9 hPa 0,0 l/m 0 min 0 min 108 W/m 12,9 km/h (3 Bft) 97,87 %
30.06.2023 18:44 22,5 C 22,2 C 18,3 C 57 % 1011,8 hPa 0,0 l/m 0 min 0 min 131 W/m 9,7 km/h (2 Bft) 97,87 %
30.06.2023 18:46 22,4 C 22,2 C 18,3 C 58 % 1011,9 hPa 0,0 l/m 0 min 0 min 189 W/m 12,9 km/h (3 Bft) 95,65 %
30.06.2023 18:48 22,5 C 22,8 C 18,3 C 58 % 1011,8 hPa 0,0 l/m 0 min 0 min 185 W/m 6,4 km/h (2 Bft) 100,00 %
30.06.2023 18:50 22,5 C 22,8 C 18,3 C 57 % 1011,8 hPa 0,0 l/m 0 min 0 min 202 W/m 6,4 km/h (2 Bft) 100,00 %
30.06.2023 18:52 22,6 C 23,9 C 18,9 C 57 % 1011,7 hPa 0,0 l/m 2 min 0 min 394 W/m 6,4 km/h (2 Bft) 98,31 %
30.06.2023 18:54 22,6 C 24,4 C 18,9 C 58 % 1011,7 hPa 0,0 l/m 2 min 0 min 389 W/m 6,4 km/h (2 Bft) 100,00 %
30.06.2023 18:56 22,7 C 25,0 C 18,9 C 57 % 1011,6 hPa 0,0 l/m 2 min 0 min 356 W/m 6,4 km/h (2 Bft) 100,00 %
30.06.2023 18:58 22,8 C 24,4 C 18,9 C 57 % 1011,6 hPa 0,0 l/m 2 min 0 min 310 W/m 12,9 km/h (3 Bft) 100,00 %
30.06.2023 19:00 22,8 C 24,4 C 18,9 C 56 % 1011,6 hPa 0,0 l/m 2 min 0 min 281 W/m 6,4 km/h (2 Bft) 100,00 %
30.06.2023 19:02 22,8 C 24,4 C 18,9 C 57 % 1011,6 hPa 0,0 l/m 2 min 0 min 259 W/m 6,4 km/h (2 Bft) 100,00 %
30.06.2023 19:04 22,9 C 24,4 C 18,9 C 57 % 1011,6 hPa 0,0 l/m 2 min 0 min 229 W/m 6,4 km/h (2 Bft) 100,00 %
30.06.2023 19:06 22,9 C 23,9 C 18,9 C 57 % 1011,6 hPa 0,0 l/m 0 min 0 min 173 W/m 6,4 km/h (2 Bft) 100,00 %
30.06.2023 19:08 22,9 C 23,9 C 18,9 C 57 % 1011,5 hPa 0,0 l/m 0 min 0 min 151 W/m 3,2 km/h (1 Bft) 97,14 %
30.06.2023 19:10 22,9 C 23,9 C 18,9 C 58 % 1011,5 hPa 0,0 l/m 0 min 0 min 149 W/m 6,4 km/h (2 Bft) 97,87 %
30.06.2023 19:12 22,9 C 23,9 C 18,9 C 58 % 1011,5 hPa 0,0 l/m 0 min 0 min 166 W/m 6,4 km/h (2 Bft) 95,74 %
30.06.2023 19:14 22,9 C 23,9 C 18,9 C 59 % 1011,5 hPa 0,0 l/m 2 min 0 min 238 W/m 3,2 km/h (1 Bft) 97,87 %
30.06.2023 19:16 22,9 C 23,9 C 18,9 C 58 % 1011,5 hPa 0,0 l/m 2 min 0 min 271 W/m 3,2 km/h (1 Bft) 93,48 %
30.06.2023 19:18 22,9 C 23,9 C 18,9 C 58 % 1011,5 hPa 0,0 l/m 2 min 0 min 238 W/m 9,7 km/h (2 Bft) 95,74 %
30.06.2023 19:20 22,9 C 23,9 C 18,9 C 58 % 1011,5 hPa 0,0 l/m 2 min 0 min 187 W/m 6,4 km/h (2 Bft) 95,74 %
30.06.2023 19:22 22,9 C 23,3 C 18,9 C 57 % 1011,5 hPa 0,0 l/m 0 min 0 min 145 W/m 6,4 km/h (2 Bft) 95,74 %
30.06.2023 19:24 22,9 C 23,3 C 18,9 C 56 % 1011,5 hPa 0,0 l/m 0 min 0 min 163 W/m 12,9 km/h (3 Bft) 92,86 %
30.06.2023 19:26 22,8 C 22,8 C 18,3 C 56 % 1011,5 hPa 0,0 l/m 2 min 0 min 183 W/m 16,1 km/h (3 Bft) 95,65 %
30.06.2023 19:28 22,7 C 22,8 C 18,3 C 56 % 1011,4 hPa 0,0 l/m 0 min 0 min 167 W/m 16,1 km/h (3 Bft) 93,62 %
30.06.2023 19:30 22,7 C 22,8 C 18,3 C 56 % 1011,4 hPa 0,0 l/m 2 min 0 min 181 W/m 19,3 km/h (3 Bft) 91,49 %
30.06.2023 19:32 22,6 C 22,2 C 18,3 C 57 % 1011,5 hPa 0,0 l/m 2 min 0 min 167 W/m 12,9 km/h (3 Bft) 95,74 %
30.06.2023 19:34 22,6 C 22,8 C 18,3 C 57 % 1011,5 hPa 0,0 l/m 2 min 0 min 164 W/m 12,9 km/h (3 Bft) 93,62 %
30.06.2023 19:36 22,6 C 22,8 C 18,3 C 58 % 1011,4 hPa 0,0 l/m 2 min 0 min 201 W/m 6,4 km/h (2 Bft) 95,74 %
30.06.2023 19:38 22,6 C 22,2 C 18,3 C 58 % 1011,4 hPa 0,0 l/m 0 min 0 min 138 W/m 6,4 km/h (2 Bft) 95,65 %
30.06.2023 19:40 22,6 C 22,2 C 18,3 C 58 % 1011,4 hPa 0,0 l/m 0 min 0 min 116 W/m 12,9 km/h (3 Bft) 97,87 %
30.06.2023 19:42 22,6 C 22,2 C 18,3 C 58 % 1011,4 hPa 0,0 l/m 0 min 0 min 104 W/m 6,4 km/h (2 Bft) 98,00 %
30.06.2023 19:44 22,4 C 21,7 C 18,3 C 58 % 1011,4 hPa 0,0 l/m 0 min 0 min 91 W/m 6,4 km/h (2 Bft) 97,87 %
30.06.2023 19:46 22,4 C 21,7 C 18,3 C 58 % 1011,4 hPa 0,0 l/m 0 min 0 min 88 W/m 6,4 km/h (2 Bft) 97,87 %
30.06.2023 19:48 22,4 C 21,7 C 17,8 C 59 % 1011,4 hPa 0,0 l/m 0 min 0 min 95 W/m 3,2 km/h (1 Bft) 95,74 %
30.06.2023 19:50 22,3 C 21,7 C 17,8 C 58 % 1011,4 hPa 0,0 l/m 0 min 0 min 105 W/m 12,9 km/h (3 Bft) 97,87 %
30.06.2023 19:52 22,3 C 21,7 C 17,8 C 59 % 1011,4 hPa 0,0 l/m 0 min 0 min 114 W/m 16,1 km/h (3 Bft) 93,48 %
30.06.2023 19:54 22,2 C 21,7 C 17,8 C 59 % 1011,3 hPa 0,0 l/m 0 min 0 min 129 W/m 9,7 km/h (2 Bft) 97,87 %
30.06.2023 19:56 22,2 C 21,7 C 18,3 C 60 % 1011,3 hPa 0,0 l/m 0 min 0 min 117 W/m 9,7 km/h (2 Bft) 97,87 %
30.06.2023 19:58 22,2 C 21,7 C 18,3 C 59 % 1011,4 hPa 0,0 l/m 0 min 0 min 106 W/m 9,7 km/h (2 Bft) 97,87 %
30.06.2023 20:00 22,2 C 21,7 C 18,3 C 60 % 1011,3 hPa 0,0 l/m 0 min 0 min 91 W/m 12,9 km/h (3 Bft) 97,87 %
30.06.2023 20:02 22,2 C 21,7 C 18,3 C 60 % 1011,3 hPa 0,0 l/m 0 min 0 min 73 W/m 12,9 km/h (3 Bft) 97,87 %
30.06.2023 20:04 22,2 C 21,7 C 18,3 C 60 % 1011,3 hPa 0,0 l/m 0 min 0 min 61 W/m 12,9 km/h (3 Bft) 97,83 %
30.06.2023 20:06 22,2 C 21,1 C 17,8 C 59 % 1011,2 hPa 0,0 l/m 0 min 0 min 50 W/m 9,7 km/h (2 Bft) 97,96 %
30.06.2023 20:08 22,1 C 21,1 C 17,8 C 60 % 1011,2 hPa 0,0 l/m 0 min 0 min 42 W/m 12,9 km/h (3 Bft) 100,00 %
30.06.2023 20:10 22,1 C 21,1 C 17,8 C 59 % 1011,2 hPa 0,0 l/m 0 min 0 min 40 W/m 6,4 km/h (2 Bft) 97,87 %
30.06.2023 20:12 22,1 C 21,1 C 17,8 C 59 % 1011,2 hPa 0,0 l/m 0 min 0 min 40 W/m 3,2 km/h (1 Bft) 100,00 %
30.06.2023 20:14 22,0 C 21,1 C 17,8 C 60 % 1011,2 hPa 0,0 l/m 0 min 0 min 44 W/m 3,2 km/h (1 Bft) 100,00 %
30.06.2023 20:16 22,0 C 21,1 C 17,8 C 60 % 1011,2 hPa 0,0 l/m 0 min 0 min 46 W/m 6,4 km/h (2 Bft) 100,00 %
30.06.2023 20:18 21,9 C 21,1 C 17,8 C 60 % 1011,2 hPa 0,0 l/m 0 min 0 min 47 W/m 6,4 km/h (2 Bft) 100,00 %
30.06.2023 20:20 21,9 C 21,1 C 17,8 C 61 % 1011,1 hPa 0,0 l/m 0 min 0 min 54 W/m 9,7 km/h (2 Bft) 100,00 %
30.06.2023 20:22 21,8 C 21,1 C 17,8 C 61 % 1011,1 hPa 0,0 l/m 0 min 0 min 71 W/m 6,4 km/h (2 Bft) 98,00 %
30.06.2023 20:24 21,8 C 21,1 C 17,8 C 61 % 1011,1 hPa 0,0 l/m 0 min 0 min 85 W/m 6,4 km/h (2 Bft) 100,00 %
30.06.2023 20:26 21,8 C 21,1 C 17,8 C 61 % 1011,1 hPa 0,0 l/m 0 min 0 min 88 W/m 6,4 km/h (2 Bft) 100,00 %
30.06.2023 20:28 21,8 C 21,1 C 17,8 C 61 % 1011,1 hPa 0,0 l/m 0 min 0 min 84 W/m 6,4 km/h (2 Bft) 100,00 %
30.06.2023 20:30 21,8 C 21,1 C 17,8 C 61 % 1011,1 hPa 0,0 l/m 0 min 0 min 78 W/m 3,2 km/h (1 Bft) 100,00 %
30.06.2023 20:32 21,8 C 21,1 C 17,8 C 61 % 1011,1 hPa 0,0 l/m 0 min 0 min 76 W/m 6,4 km/h (2 Bft) 100,00 %
30.06.2023 20:35 21,8 C 21,1 C 17,8 C 61 % 1011,1 hPa 0,0 l/m 0 min 0 min 73 W/m 6,4 km/h (2 Bft) 100,00 %
30.06.2023 20:38 21,8 C 21,1 C 17,8 C 62 % 1011,1 hPa 0,0 l/m 0 min 0 min 67 W/m 9,7 km/h (2 Bft) 100,00 %
30.06.2023 20:40 21,8 C 21,1 C 17,8 C 61 % 1011,1 hPa 0,0 l/m 0 min 0 min 59 W/m 3,2 km/h (1 Bft) 97,14 %
30.06.2023 20:42 21,8 C 21,1 C 17,8 C 61 % 1011,1 hPa 0,0 l/m 0 min 0 min 55 W/m 6,4 km/h (2 Bft) 100,00 %
30.06.2023 20:44 21,8 C 21,1 C 17,2 C 61 % 1011,1 hPa 0,0 l/m 0 min 0 min 50 W/m 3,2 km/h (1 Bft) 97,87 %
30.06.2023 20:46 21,8 C 21,1 C 17,2 C 61 % 1011,1 hPa 0,0 l/m 0 min 0 min 45 W/m 6,4 km/h (2 Bft) 97,87 %
30.06.2023 20:48 21,7 C 20,6 C 17,2 C 62 % 1011,1 hPa 0,0 l/m 0 min 0 min 38 W/m 6,4 km/h (2 Bft) 95,74 %
30.06.2023 20:50 21,7 C 20,6 C 17,2 C 61 % 1011,1 hPa 0,0 l/m 0 min 0 min 34 W/m 3,2 km/h (1 Bft) 97,83 %
30.06.2023 20:52 21,7 C 20,6 C 17,2 C 61 % 1011,1 hPa 0,0 l/m 0 min 0 min 32 W/m 6,4 km/h (2 Bft) 95,74 %
30.06.2023 20:54 21,7 C 20,6 C 17,2 C 61 % 1011,1 hPa 0,0 l/m 0 min 0 min 32 W/m 9,7 km/h (2 Bft) 95,74 %
30.06.2023 20:56 21,6 C 20,6 C 17,2 C 61 % 1011,1 hPa 0,0 l/m 0 min 0 min 30 W/m 6,4 km/h (2 Bft) 97,87 %
30.06.2023 20:58 21,6 C 20,6 C 17,2 C 62 % 1011,1 hPa 0,0 l/m 0 min 0 min 29 W/m 3,2 km/h (1 Bft) 97,87 %
30.06.2023 21:00 21,6 C 20,6 C 17,2 C 61 % 1011,1 hPa 0,0 l/m 0 min 0 min 28 W/m 6,4 km/h (2 Bft) 95,74 %
30.06.2023 21:02 21,6 C 20,6 C 17,2 C 61 % 1011,1 hPa 0,0 l/m 0 min 0 min 28 W/m 12,9 km/h (3 Bft) 95,74 %
30.06.2023 21:04 21,5 C 20,6 C 17,2 C 62 % 1011,1 hPa 0,0 l/m 0 min 0 min 28 W/m 9,7 km/h (2 Bft) 97,67 %
30.06.2023 21:06 21,4 C 20,6 C 17,2 C 62 % 1011,0 hPa 0,0 l/m 0 min 0 min 27 W/m 6,4 km/h (2 Bft) 93,48 %
30.06.2023 21:08 21,4 C 20,0 C 17,2 C 62 % 1011,0 hPa 0,0 l/m 0 min 0 min 25 W/m 6,4 km/h (2 Bft) 93,62 %
30.06.2023 21:10 21,4 C 20,0 C 17,2 C 62 % 1011,1 hPa 0,0 l/m 0 min 0 min 24 W/m 3,2 km/h (1 Bft) 95,74 %
30.06.2023 21:12 21,4 C 20,0 C 17,2 C 62 % 1011,0 hPa 0,0 l/m 0 min 0 min 20 W/m 6,4 km/h (2 Bft) 95,74 %
30.06.2023 21:14 21,3 C 20,0 C 16,7 C 63 % 1011,0 hPa 0,0 l/m 0 min 0 min 17 W/m 3,2 km/h (1 Bft) 95,74 %
30.06.2023 21:16 21,3 C 20,0 C 16,7 C 63 % 1011,0 hPa 0,0 l/m 0 min 0 min 15 W/m 3,2 km/h (1 Bft) 95,74 %
30.06.2023 21:18 21,3 C 20,0 C 16,7 C 63 % 1011,0 hPa 0,0 l/m 0 min 0 min 14 W/m 6,4 km/h (2 Bft) 95,74 %
30.06.2023 21:20 21,3 C 20,0 C 16,7 C 64 % 1011,0 hPa 0,0 l/m 0 min 0 min 14 W/m 3,2 km/h (1 Bft) 95,74 %
30.06.2023 21:22 21,2 C 20,0 C 16,7 C 64 % 1011,0 hPa 0,0 l/m 0 min 0 min 12 W/m 6,4 km/h (2 Bft) 96,08 %
30.06.2023 21:25 21,2 C 20,0 C 16,7 C 64 % 1011,0 hPa 0,0 l/m 0 min 0 min 13 W/m 6,4 km/h (2 Bft) 98,25 %
30.06.2023 21:32 21,1 C 20,0 C 16,7 C 65 % 1011,0 hPa 0,0 l/m 0 min 0 min 15 W/m 3,2 km/h (1 Bft) 94,87 %
30.06.2023 21:34 21,1 C 20,0 C 16,7 C 65 % 1011,0 hPa 0,0 l/m 0 min 0 min 13 W/m 6,4 km/h (2 Bft) 98,00 %
30.06.2023 21:36 21,1 C 19,4 C 16,7 C 65 % 1011,0 hPa 0,0 l/m 0 min 0 min 11 W/m 3,2 km/h (1 Bft) 97,87 %
30.06.2023 21:38 21,1 C 19,4 C 16,7 C 65 % 1011,0 hPa 0,0 l/m 0 min 0 min 10 W/m 3,2 km/h (1 Bft) 100,00 %
30.06.2023 21:40 21,0 C 19,4 C 16,7 C 65 % 1011,0 hPa 0,0 l/m 0 min 0 min 9 W/m 6,4 km/h (2 Bft) 100,00 %
30.06.2023 21:42 20,9 C 19,4 C 16,7 C 65 % 1011,0 hPa 0,0 l/m 0 min 0 min 5 W/m 3,2 km/h (1 Bft) 97,88 %
30.06.2023 21:44 20,9 C 19,4 C 16,7 C 65 % 1011,0 hPa 0,0 l/m 0 min 0 min 5 W/m 6,4 km/h (2 Bft) 100,00 %
30.06.2023 21:46 20,8 C 19,4 C 16,7 C 66 % 1011,0 hPa 0,0 l/m 0 min 0 min 3 W/m 3,2 km/h (1 Bft) 100,00 %
30.06.2023 21:48 20,8 C 19,4 C 16,1 C 66 % 1011,0 hPa 0,0 l/m 0 min 0 min 0 W/m 3,2 km/h (1 Bft) 100,00 %
30.06.2023 21:50 20,8 C 19,4 C 16,1 C 66 % 1011,0 hPa 0,0 l/m 0 min 0 min 0 W/m 6,4 km/h (2 Bft) 100,00 %
30.06.2023 21:52 20,7 C 19,4 C 16,1 C 67 % 1011,0 hPa 0,0 l/m 0 min 0 min 0 W/m 3,2 km/h (1 Bft) 100,00 %
30.06.2023 21:54 20,7 C 18,9 C 16,1 C 66 % 1011,0 hPa 0,0 l/m 0 min 0 min 0 W/m 3,2 km/h (1 Bft) 100,00 %
30.06.2023 21:56 20,7 C 18,9 C 16,1 C 67 % 1011,0 hPa 0,0 l/m 0 min 0 min 0 W/m 3,2 km/h (1 Bft) 97,87 %
30.06.2023 21:58 20,6 C 18,9 C 16,1 C 67 % 1011,1 hPa 0,0 l/m 0 min 0 min 0 W/m 3,2 km/h (1 Bft) 97,87 %
30.06.2023 22:00 20,6 C 18,9 C 16,1 C 67 % 1011,0 hPa 0,0 l/m 0 min 0 min 0 W/m 3,2 km/h (1 Bft) 100,00 %
30.06.2023 22:02 20,6 C 18,9 C 16,1 C 67 % 1011,0 hPa 0,0 l/m 0 min 0 min 0 W/m 3,2 km/h (1 Bft) 97,83 %
30.06.2023 22:04 20,5 C 18,9 C 16,1 C 67 % 1011,0 hPa 0,0 l/m 0 min 0 min 0 W/m 3,2 km/h (1 Bft) 100,00 %
30.06.2023 22:06 20,4 C 18,9 C 16,1 C 68 % 1011,0 hPa 0,0 l/m 0 min 0 min 0 W/m 3,2 km/h (1 Bft) 96,72 %
30.06.2023 22:08 20,4 C 18,9 C 15,6 C 68 % 1011,0 hPa 0,0 l/m 0 min 0 min 0 W/m 6,4 km/h (2 Bft) 100,00 %
30.06.2023 22:10 20,3 C 18,9 C 15,6 C 68 % 1011,0 hPa 0,0 l/m 0 min 0 min 0 W/m 0,0 km/h (0 Bft) 100,00 %
30.06.2023 22:12 20,3 C 18,9 C 15,6 C 68 % 1011,0 hPa 0,0 l/m 0 min 0 min 0 W/m 0,0 km/h (0 Bft) 100,00 %
30.06.2023 22:14 20,3 C 18,9 C 15,6 C 68 % 1011,0 hPa 0,0 l/m 0 min 0 min 0 W/m 3,2 km/h (1 Bft) 97,87 %
30.06.2023 22:16 20,2 C 18,9 C 15,6 C 69 % 1011,0 hPa 0,0 l/m 0 min 0 min 0 W/m 0,0 km/h (0 Bft) 97,83 %
30.06.2023 22:18 20,2 C 18,9 C 15,6 C 69 % 1010,9 hPa 0,0 l/m 0 min 0 min 0 W/m 0,0 km/h (0 Bft) 97,87 %
30.06.2023 22:20 20,2 C 18,9 C 15,6 C 69 % 1011,0 hPa 0,0 l/m 0 min 0 min 0 W/m 3,2 km/h (1 Bft) 97,87 %
30.06.2023 22:22 20,1 C 18,3 C 15,6 C 69 % 1011,0 hPa 0,0 l/m 0 min 0 min 0 W/m 3,2 km/h (1 Bft) 97,87 %
30.06.2023 22:24 20,1 C 18,3 C 15,6 C 69 % 1011,0 hPa 0,0 l/m 0 min 0 min 0 W/m 3,2 km/h (1 Bft) 97,87 %
30.06.2023 22:26 20,1 C 18,3 C 15,6 C 69 % 1010,9 hPa 0,0 l/m 0 min 0 min 0 W/m 3,2 km/h (1 Bft) 97,87 %
30.06.2023 22:28 20,0 C 18,3 C 15,6 C 69 % 1010,9 hPa 0,0 l/m 0 min 0 min 0 W/m 3,2 km/h (1 Bft) 97,87 %
30.06.2023 22:30 19,9 C 18,3 C 15,6 C 70 % 1010,9 hPa 0,0 l/m 0 min 0 min 0 W/m 6,4 km/h (2 Bft) 97,83 %
30.06.2023 22:32 19,9 C 18,3 C 15,6 C 70 % 1010,9 hPa 0,0 l/m 0 min 0 min 0 W/m 3,2 km/h (1 Bft) 97,87 %
30.06.2023 22:34 19,8 C 18,3 C 15,6 C 70 % 1010,8 hPa 0,0 l/m 0 min 0 min 0 W/m 6,4 km/h (2 Bft) 95,74 %
30.06.2023 22:36 19,8 C 18,3 C 15,6 C 70 % 1010,9 hPa 0,0 l/m 0 min 0 min 0 W/m 3,2 km/h (1 Bft) 97,87 %
30.06.2023 22:38 19,7 C 18,3 C 15,6 C 70 % 1010,8 hPa 0,0 l/m 0 min 0 min 0 W/m 3,2 km/h (1 Bft) 97,87 %
30.06.2023 22:40 19,7 C 18,3 C 15,6 C 70 % 1010,9 hPa 0,0 l/m 0 min 0 min 0 W/m 6,4 km/h (2 Bft) 93,62 %
30.06.2023 22:42 19,6 C 18,3 C 15,6 C 71 % 1010,9 hPa 0,0 l/m 0 min 0 min 0 W/m 6,4 km/h (2 Bft) 97,87 %
30.06.2023 22:44 19,6 C 18,3 C 15,6 C 71 % 1010,8 hPa 0,0 l/m 0 min 0 min 0 W/m 3,2 km/h (1 Bft) 97,83 %
30.06.2023 22:46 19,6 C 18,3 C 15,6 C 71 % 1010,9 hPa 0,0 l/m 0 min 0 min 0 W/m 3,2 km/h (1 Bft) 97,87 %
30.06.2023 22:48 19,6 C 18,3 C 15,6 C 72 % 1010,9 hPa 0,0 l/m 0 min 0 min 0 W/m 3,2 km/h (1 Bft) 97,87 %
30.06.2023 22:50 19,5 C 18,3 C 15,0 C 72 % 1010,9 hPa 0,0 l/m 0 min 0 min 0 W/m 3,2 km/h (1 Bft) 95,74 %
30.06.2023 22:52 19,4 C 18,3 C 15,0 C 72 % 1010,8 hPa 0,0 l/m 0 min 0 min 0 W/m 0,0 km/h (0 Bft) 97,87 %
30.06.2023 22:54 19,4 C 18,3 C 15,0 C 72 % 1010,8 hPa 0,0 l/m 0 min 0 min 0 W/m 0,0 km/h (0 Bft) 97,87 %
30.06.2023 22:56 19,4 C 18,3 C 15,6 C 72 % 1010,8 hPa 0,0 l/m 0 min 0 min 0 W/m 3,2 km/h (1 Bft) 95,74 %
30.06.2023 22:58 19,4 C 18,3 C 15,0 C 72 % 1010,8 hPa 0,0 l/m 0 min 0 min 0 W/m 3,2 km/h (1 Bft) 93,62 %
30.06.2023 23:00 19,4 C 18,3 C 15,6 C 72 % 1010,8 hPa 0,0 l/m 0 min 0 min 0 W/m 0,0 km/h (0 Bft) 93,62 %
30.06.2023 23:02 19,3 C 18,3 C 15,6 C 72 % 1010,8 hPa 0,0 l/m 0 min 0 min 0 W/m 0,0 km/h (0 Bft) 97,83 %
30.06.2023 23:04 19,3 C 18,3 C 15,0 C 72 % 1010,8 hPa 0,0 l/m 0 min 0 min 0 W/m 0,0 km/h (0 Bft) 97,92 %
30.06.2023 23:06 19,3 C 18,3 C 15,0 C 72 % 1010,8 hPa 0,0 l/m 0 min 0 min 0 W/m 3,2 km/h (1 Bft) 95,74 %
30.06.2023 23:08 19,3 C 18,3 C 15,0 C 72 % 1010,7 hPa 0,0 l/m 0 min 0 min 0 W/m 6,4 km/h (2 Bft) 95,74 %
30.06.2023 23:10 19,3 C 18,3 C 15,0 C 71 % 1010,7 hPa 0,0 l/m 0 min 0 min 0 W/m 3,2 km/h (1 Bft) 97,87 %
30.06.2023 23:12 19,2 C 18,3 C 15,0 C 72 % 1010,8 hPa 0,0 l/m 0 min 0 min 0 W/m 3,2 km/h (1 Bft) 97,83 %
30.06.2023 23:14 19,2 C 18,3 C 15,0 C 72 % 1010,7 hPa 0,0 l/m 0 min 0 min 0 W/m 0,0 km/h (0 Bft) 97,30 %
30.06.2023 23:16 19,2 C 18,3 C 15,0 C 71 % 1010,7 hPa 0,0 l/m 0 min 0 min 0 W/m 3,2 km/h (1 Bft) 97,87 %
30.06.2023 23:18 19,2 C 18,3 C 15,0 C 71 % 1010,7 hPa 0,0 l/m 0 min 0 min 0 W/m 3,2 km/h (1 Bft) 97,83 %
30.06.2023 23:20 19,1 C 18,3 C 15,0 C 71 % 1010,7 hPa 0,0 l/m 0 min 0 min 0 W/m 6,4 km/h (2 Bft) 97,87 %
30.06.2023 23:22 19,1 C 18,3 C 15,0 C 72 % 1010,6 hPa 0,0 l/m 0 min 0 min 0 W/m 6,4 km/h (2 Bft) 91,49 %
30.06.2023 23:24 19,1 C 18,3 C 15,0 C 72 % 1010,6 hPa 0,0 l/m 0 min 0 min 0 W/m 9,7 km/h (2 Bft) 97,87 %
30.06.2023 23:26 19,1 C 18,3 C 15,0 C 72 % 1010,6 hPa 0,0 l/m 0 min 0 min 0 W/m 9,7 km/h (2 Bft) 97,87 %
30.06.2023 23:28 19,1 C 17,8 C 15,0 C 72 % 1010,6 hPa 0,0 l/m 0 min 0 min 0 W/m 19,3 km/h (3 Bft) 100,00 %
30.06.2023 23:30 19,1 C 17,8 C 15,0 C 72 % 1010,6 hPa 0,0 l/m 0 min 0 min 0 W/m 12,9 km/h (3 Bft) 100,00 %
30.06.2023 23:32 19,0 C 17,8 C 15,0 C 72 % 1010,6 hPa 0,0 l/m 0 min 0 min 0 W/m 6,4 km/h (2 Bft) 97,83 %
30.06.2023 23:34 19,0 C 18,3 C 15,0 C 72 % 1010,5 hPa 0,0 l/m 0 min 0 min 0 W/m 12,9 km/h (3 Bft) 100,00 %
30.06.2023 23:36 19,0 C 18,3 C 15,0 C 72 % 1010,5 hPa 0,0 l/m 0 min 0 min 0 W/m 9,7 km/h (2 Bft) 97,87 %
30.06.2023 23:38 19,0 C 18,3 C 15,0 C 72 % 1010,5 hPa 0,0 l/m 0 min 0 min 0 W/m 6,4 km/h (2 Bft) 97,87 %
30.06.2023 23:40 19,0 C 18,3 C 15,0 C 72 % 1010,4 hPa 0,0 l/m 0 min 0 min 0 W/m 9,7 km/h (2 Bft) 97,87 %
30.06.2023 23:42 19,0 C 18,3 C 15,0 C 72 % 1010,4 hPa 0,0 l/m 0 min 0 min 0 W/m 3,2 km/h (1 Bft) 97,87 %
30.06.2023 23:44 19,0 C 18,3 C 15,0 C 72 % 1010,4 hPa 0,0 l/m 0 min 0 min 0 W/m 3,2 km/h (1 Bft) 93,62 %
30.06.2023 23:46 19,0 C 18,3 C 15,0 C 72 % 1010,4 hPa 0,0 l/m 0 min 0 min 0 W/m 3,2 km/h (1 Bft) 97,87 %
30.06.2023 23:48 19,0 C 17,8 C 15,0 C 72 % 1010,4 hPa 0,0 l/m 0 min 0 min 0 W/m 3,2 km/h (1 Bft) 97,87 %
30.06.2023 23:50 18,9 C 17,8 C 15,0 C 72 % 1010,4 hPa 0,0 l/m 0 min 0 min 0 W/m 3,2 km/h (1 Bft) 97,87 %
30.06.2023 23:52 18,9 C 17,8 C 15,0 C 72 % 1010,3 hPa 0,0 l/m 0 min 0 min 0 W/m 3,2 km/h (1 Bft) 97,87 %
30.06.2023 23:54 18,9 C 17,8 C 15,0 C 72 % 1010,4 hPa 0,0 l/m 0 min 0 min 0 W/m 3,2 km/h (1 Bft) 97,87 %
30.06.2023 23:56 18,9 C 17,8 C 15,0 C 72 % 1010,3 hPa 0,0 l/m 0 min 0 min 0 W/m 3,2 km/h (1 Bft) 95,83 %
30.06.2023 23:58 18,9 C 17,8 C 15,0 C 73 % 1010,3 hPa 0,0 l/m 0 min 0 min 0 W/m 6,4 km/h (2 Bft) 97,87 %
_ Min-Zeit 07:34 03:46 04:12 16:40 23:52 - - - - 02:44 15:40
Minimum _ 14,8 C 14,4 C 10,6 C 50 % 1010,3 hPa - - - - 0,0 km/h (0 Bft) 87,23 %
_ Max-Zeit 15:54 14:38 12:32 03:16 10:06 01:31 09:12 01:31 13:24 00:28 00:40
Maximum _ 24,5 C 28,9 C 22,8 C 97 % 1015,2 hPa 0,2 l/m 5 min 3 min 1197 W/m 22,5 km/h
W-NW (4 Bft)
100,00 %
Durchschnitt _ 19,4 C 20,2 C 16,0 C 74 % 1013,5 hPa #2,0 l/m #9:09 h #1:34 h 422 W/m 8,8 km/h (2 Bft) 97,61 %
© 2023 W. Hausmann